Time,TemperatureF,DewpointF,PressureIn,WindDirection,WindDirectionDegrees,WindSpeedMPH,WindSpeedGustMPH,Humidity,HourlyPrecipIn,Conditions,Clouds,dailyrainin,SoftwareType,DateUTC
2013-08-04 00:03:00,64.8,55.2,30.00,East,90,0.0,2.5,71,0.00,,CLR,0.00,VWS V14.00,2013-08-04 07:03:00,
2013-08-04 00:04:00,64.8,55.2,30.00,East,90,0.0,2.5,71,0.00,,CLR,0.00,VWS V14.00,2013-08-04 07:04:00,
2013-08-04 00:08:00,64.6,55.0,30.00,East,90,0.0,2.5,71,0.00,,CLR,0.00,VWS V14.00,2013-08-04 07:08:00,
2013-08-04 00:09:00,64.6,55.0,30.00,East,90,0.0,2.5,71,0.00,,CLR,0.00,VWS V14.00,2013-08-04 07:09:00,
2013-08-04 00:10:00,64.6,55.0,30.00,East,90,0.0,2.5,71,0.00,,CLR,0.00,VWS V14.00,2013-08-04 07:10:00,
2013-08-04 00:13:00,64.6,55.0,30.00,East,90,0.0,0.9,71,0.00,,CLR,0.00,VWS V14.00,2013-08-04 07:13:00,
2013-08-04 00:14:00,64.6,55.0,30.00,East,90,0.0,0.9,71,0.00,,CLR,0.00,VWS V14.00,2013-08-04 07:14:00,
2013-08-04 00:15:00,64.6,55.0,30.00,East,90,0.0,0.9,71,0.00,,CLR,0.00,VWS V14.00,2013-08-04 07:15:00,
2013-08-04 00:18:00,64.4,54.8,30.00,East,90,0.0,0.0,71,0.00,,CLR,0.00,VWS V14.00,2013-08-04 07:18:00,
2013-08-04 00:19:00,64.4,54.8,30.00,East,90,0.0,0.0,71,0.00,,CLR,0.00,VWS V14.00,2013-08-04 07:19:00,
2013-08-04 00:20:00,64.4,54.8,30.00,East,90,0.0,0.0,71,0.00,,CLR,0.00,VWS V14.00,2013-08-04 07:20:00,
2013-08-04 00:23:00,64.2,55.0,30.00,East,90,0.0,0.0,72,0.00,,CLR,0.00,VWS V14.00,2013-08-04 07:23:00,
2013-08-04 00:24:00,64.2,55.0,30.00,East,90,0.0,0.0,72,0.00,,CLR,0.00,VWS V14.00,2013-08-04 07:24:00,
2013-08-04 00:25:00,64.2,55.0,30.00,East,90,0.0,0.0,72,0.00,,CLR,0.00,VWS V14.00,2013-08-04 07:25:00,
2013-08-04 00:28:00,64.0,54.8,30.00,East,90,0.0,0.0,72,0.00,,CLR,0.00,VWS V14.00,2013-08-04 07:28:00,
2013-08-04 00:29:00,64.0,54.8,30.00,East,90,0.0,0.0,72,0.00,,CLR,0.00,VWS V14.00,2013-08-04 07:29:00,
2013-08-04 00:30:00,63.9,54.7,30.00,East,90,0.0,0.0,72,0.00,,CLR,0.00,VWS V14.00,2013-08-04 07:30:00,
2013-08-04 00:33:00,63.9,54.7,30.00,East,90,0.0,0.0,72,0.00,,CLR,0.00,VWS V14.00,2013-08-04 07:33:00,
2013-08-04 00:34:00,63.9,54.7,30.00,East,90,0.0,0.0,72,0.00,,CLR,0.00,VWS V14.00,2013-08-04 07:34:00,
2013-08-04 00:35:00,63.7,54.5,30.00,East,90,0.0,0.0,72,0.00,,CLR,0.00,VWS V14.00,2013-08-04 07:35:00,
2013-08-04 00:39:00,63.7,54.5,30.00,East,90,0.0,0.0,72,0.00,,CLR,0.00,VWS V14.00,2013-08-04 07:39:00,
2013-08-04 00:40:00,63.7,54.5,30.00,East,90,0.0,0.0,72,0.00,,CLR,0.00,VWS V14.00,2013-08-04 07:40:00,
2013-08-04 00:44:00,63.3,54.5,30.00,East,90,0.0,0.0,73,0.00,,CLR,0.00,VWS V14.00,2013-08-04 07:44:00,
2013-08-04 00:45:00,63.3,54.5,30.00,East,90,0.0,0.0,73,0.00,,CLR,0.00,VWS V14.00,2013-08-04 07:45:00,
2013-08-04 00:49:00,63.1,54.3,30.00,East,90,0.0,0.0,73,0.00,,CLR,0.00,VWS V14.00,2013-08-04 07:49:00,
2013-08-04 00:50:00,63.1,54.3,30.00,East,90,0.0,0.0,73,0.00,,CLR,0.00,VWS V14.00,2013-08-04 07:50:00,
2013-08-04 00:54:00,63.1,54.3,30.00,East,90,0.0,0.0,73,0.00,,CLR,0.00,VWS V14.00,2013-08-04 07:54:00,
2013-08-04 00:55:00,63.1,54.3,30.00,East,90,0.0,0.0,73,0.00,,CLR,0.00,VWS V14.00,2013-08-04 07:55:00,
2013-08-04 00:59:00,63.0,54.5,30.00,East,90,0.0,0.0,74,0.00,,CLR,0.00,VWS V14.00,2013-08-04 07:59:00,
2013-08-04 01:00:00,63.0,54.5,30.00,East,90,0.0,0.0,74,0.00,,CLR,0.00,VWS V14.00,2013-08-04 08:00:00,
2013-08-04 01:04:00,62.8,54.4,30.00,East,90,0.0,0.0,74,0.00,,CLR,0.00,VWS V14.00,2013-08-04 08:04:00,
2013-08-04 01:05:00,62.8,54.4,30.00,East,90,0.0,0.0,74,0.00,,CLR,0.00,VWS V14.00,2013-08-04 08:05:00,
2013-08-04 01:09:00,62.6,54.6,30.00,East,90,0.0,0.0,75,0.00,,CLR,0.00,VWS V14.00,2013-08-04 08:09:00,
2013-08-04 01:10:00,62.6,54.6,30.00,East,90,0.0,0.0,75,0.00,,CLR,0.00,VWS V14.00,2013-08-04 08:10:00,
2013-08-04 01:14:00,62.6,54.6,30.00,East,90,0.0,0.0,75,0.00,,CLR,0.00,VWS V14.00,2013-08-04 08:14:00,
2013-08-04 01:15:00,62.6,54.6,30.00,East,90,0.0,0.0,75,0.00,,CLR,0.00,VWS V14.00,2013-08-04 08:15:00,
2013-08-04 01:19:00,62.4,54.8,30.00,East,90,0.0,0.0,76,0.00,,CLR,0.00,VWS V14.00,2013-08-04 08:19:00,
2013-08-04 01:20:00,62.4,54.8,30.00,East,90,0.0,0.0,76,0.00,,CLR,0.00,VWS V14.00,2013-08-04 08:20:00,
2013-08-04 01:24:00,62.2,54.6,30.00,East,90,0.0,0.0,76,0.00,,CLR,0.00,VWS V14.00,2013-08-04 08:24:00,
2013-08-04 01:25:00,62.2,54.6,30.00,East,90,0.0,0.0,76,0.00,,CLR,0.00,VWS V14.00,2013-08-04 08:25:00,
2013-08-04 01:29:00,62.2,55.0,30.00,East,90,0.0,0.0,77,0.00,,CLR,0.00,VWS V14.00,2013-08-04 08:29:00,
2013-08-04 01:30:00,62.2,55.0,30.00,East,90,0.0,0.0,77,0.00,,CLR,0.00,VWS V14.00,2013-08-04 08:30:00,
2013-08-04 01:31:00,62.2,55.0,30.00,East,90,0.0,0.0,77,0.00,,CLR,0.00,VWS V14.00,2013-08-04 08:31:00,
2013-08-04 01:34:00,62.1,54.8,30.00,East,90,0.0,0.0,77,0.00,,CLR,0.00,VWS V14.00,2013-08-04 08:34:00,
2013-08-04 01:35:00,62.1,54.8,30.00,East,90,0.0,0.0,77,0.00,,CLR,0.00,VWS V14.00,2013-08-04 08:35:00,
2013-08-04 01:36:00,62.1,54.8,30.00,East,90,0.0,0.0,77,0.00,,CLR,0.00,VWS V14.00,2013-08-04 08:36:00,
2013-08-04 01:39:00,61.9,54.6,30.00,East,90,0.0,0.0,77,0.00,,CLR,0.00,VWS V14.00,2013-08-04 08:39:00,
2013-08-04 01:40:00,61.9,54.6,30.00,East,90,0.0,0.0,77,0.00,,CLR,0.00,VWS V14.00,2013-08-04 08:40:00,
2013-08-04 01:41:00,61.9,54.6,30.00,East,90,0.0,0.0,77,0.00,,CLR,0.00,VWS V14.00,2013-08-04 08:41:00,
2013-08-04 01:44:00,61.9,55.0,30.00,ESE,112,0.0,0.0,78,0.00,,CLR,0.00,VWS V14.00,2013-08-04 08:44:00,
2013-08-04 01:45:00,61.9,55.0,30.00,ESE,112,0.0,0.0,78,0.00,,CLR,0.00,VWS V14.00,2013-08-04 08:45:00,
2013-08-04 01:46:00,61.9,55.0,30.00,ESE,112,0.0,0.0,78,0.00,,CLR,0.00,VWS V14.00,2013-08-04 08:46:00,
2013-08-04 01:49:00,61.7,54.8,30.00,SSW,202,0.0,0.0,78,0.00,,CLR,0.00,VWS V14.00,2013-08-04 08:49:00,
2013-08-04 01:50:00,61.7,54.8,30.00,SSW,202,0.0,0.0,78,0.00,,CLR,0.00,VWS V14.00,2013-08-04 08:50:00,
2013-08-04 01:51:00,61.7,54.8,30.00,SE,135,0.0,0.0,78,0.00,,CLR,0.00,VWS V14.00,2013-08-04 08:51:00,
2013-08-04 01:54:00,61.7,54.8,30.00,South,180,0.0,0.0,78,0.00,,CLR,0.00,VWS V14.00,2013-08-04 08:54:00,
2013-08-04 01:55:00,61.7,54.8,30.00,South,180,0.0,0.0,78,0.00,,CLR,0.00,VWS V14.00,2013-08-04 08:55:00,
2013-08-04 01:56:00,61.7,55.1,30.00,ESE,112,0.0,0.0,79,0.00,,CLR,0.00,VWS V14.00,2013-08-04 08:56:00,
2013-08-04 01:59:00,61.5,55.0,30.00,SSW,202,0.0,0.0,79,0.00,,CLR,0.00,VWS V14.00,2013-08-04 08:59:00,
2013-08-04 02:00:00,61.5,55.0,30.00,SSW,202,0.0,0.0,79,0.00,,CLR,0.00,VWS V14.00,2013-08-04 09:00:00,
2013-08-04 02:01:00,61.5,55.0,30.00,SSW,202,0.0,0.0,79,0.00,,CLR,0.00,VWS V14.00,2013-08-04 09:01:00,
2013-08-04 02:04:00,61.5,55.0,30.00,SE,135,0.0,0.0,79,0.00,,CLR,0.00,VWS V14.00,2013-08-04 09:04:00,
2013-08-04 02:05:00,61.5,55.3,30.00,SE,135,0.0,0.0,80,0.00,,CLR,0.00,VWS V14.00,2013-08-04 09:05:00,
2013-08-04 02:06:00,61.5,55.3,30.00,SSW,202,0.0,0.0,80,0.00,,CLR,0.00,VWS V14.00,2013-08-04 09:06:00,
2013-08-04 02:09:00,61.3,55.1,30.00,ESE,112,0.0,0.0,80,0.00,,CLR,0.00,VWS V14.00,2013-08-04 09:09:00,
2013-08-04 02:10:00,61.3,55.1,30.00,ESE,112,0.0,0.0,80,0.00,,CLR,0.00,VWS V14.00,2013-08-04 09:10:00,
2013-08-04 02:11:00,61.3,55.1,30.00,WSW,248,0.0,0.0,80,0.00,,CLR,0.00,VWS V14.00,2013-08-04 09:11:00,
2013-08-04 02:12:00,61.3,55.1,30.00,WSW,248,0.0,0.0,80,0.00,,CLR,0.00,VWS V14.00,2013-08-04 09:12:00,
2013-08-04 02:14:00,61.3,55.1,30.00,WSW,248,0.0,0.0,80,0.00,,CLR,0.00,VWS V14.00,2013-08-04 09:14:00,
2013-08-04 02:15:00,61.3,55.1,30.00,WSW,248,0.0,0.0,80,0.00,,CLR,0.00,VWS V14.00,2013-08-04 09:15:00,
2013-08-04 02:16:00,61.3,55.1,30.00,WSW,248,0.0,0.0,80,0.00,,CLR,0.00,VWS V14.00,2013-08-04 09:16:00,
2013-08-04 02:17:00,61.3,55.1,30.00,SSE,158,0.0,0.0,80,0.00,,CLR,0.00,VWS V14.00,2013-08-04 09:17:00,
2013-08-04 02:19:00,61.3,55.1,30.00,SE,135,0.0,0.0,80,0.00,,CLR,0.00,VWS V14.00,2013-08-04 09:19:00,
2013-08-04 02:20:00,61.3,55.1,30.00,SE,135,0.0,0.0,80,0.00,,CLR,0.00,VWS V14.00,2013-08-04 09:20:00,
2013-08-04 02:21:00,61.0,54.8,30.00,East,90,0.0,0.0,80,0.00,,CLR,0.00,VWS V14.00,2013-08-04 09:21:00,
2013-08-04 02:22:00,61.0,54.8,30.00,SE,135,0.0,0.0,80,0.00,,CLR,0.00,VWS V14.00,2013-08-04 09:22:00,
2013-08-04 02:24:00,61.0,55.1,30.00,SW,225,0.0,0.0,81,0.00,,CLR,0.00,VWS V14.00,2013-08-04 09:24:00,
2013-08-04 02:25:00,61.0,55.1,30.00,SW,225,0.0,0.0,81,0.00,,CLR,0.00,VWS V14.00,2013-08-04 09:25:00,
2013-08-04 02:26:00,61.0,55.1,30.00,SSW,202,0.0,0.0,81,0.00,,CLR,0.00,VWS V14.00,2013-08-04 09:26:00,
2013-08-04 02:27:00,61.0,55.1,30.00,SSW,202,0.0,0.0,81,0.00,,CLR,0.00,VWS V14.00,2013-08-04 09:27:00,
2013-08-04 02:30:00,61.0,55.1,30.00,SE,135,0.0,0.0,81,0.00,,CLR,0.00,VWS V14.00,2013-08-04 09:30:00,
2013-08-04 02:31:00,61.0,55.1,30.00,ESE,112,0.9,0.9,81,0.00,,CLR,0.00,VWS V14.00,2013-08-04 09:31:00,
2013-08-04 02:32:00,61.0,54.8,30.00,SSE,158,0.0,0.9,80,0.00,,CLR,0.00,VWS V14.00,2013-08-04 09:32:00,
2013-08-04 02:35:00,60.8,54.9,30.00,SE,135,0.0,0.9,81,0.00,,CLR,0.00,VWS V14.00,2013-08-04 09:35:00,
2013-08-04 02:36:00,60.8,54.9,30.00,SE,135,0.0,0.9,81,0.00,,CLR,0.00,VWS V14.00,2013-08-04 09:36:00,
2013-08-04 02:37:00,60.8,54.9,30.00,SE,135,0.0,0.9,81,0.00,,CLR,0.00,VWS V14.00,2013-08-04 09:37:00,
2013-08-04 02:40:00,60.8,54.9,30.00,WSW,248,0.0,0.9,81,0.00,,CLR,0.00,VWS V14.00,2013-08-04 09:40:00,
2013-08-04 02:41:00,60.8,54.9,30.00,East,90,0.0,0.9,81,0.00,,CLR,0.00,VWS V14.00,2013-08-04 09:41:00,
2013-08-04 02:42:00,60.8,54.9,30.00,East,90,0.0,0.9,81,0.00,,CLR,0.00,VWS V14.00,2013-08-04 09:42:00,
2013-08-04 02:45:00,60.6,55.1,30.00,WSW,248,0.0,0.0,82,0.00,,CLR,0.00,VWS V14.00,2013-08-04 09:45:00,
2013-08-04 02:46:00,60.6,55.1,30.00,SSW,202,0.0,0.0,82,0.00,,CLR,0.00,VWS V14.00,2013-08-04 09:46:00,
2013-08-04 02:47:00,60.6,55.1,30.00,East,90,0.0,0.0,82,0.00,,CLR,0.00,VWS V14.00,2013-08-04 09:47:00,
2013-08-04 02:50:00,60.6,55.1,30.00,ESE,112,0.0,0.0,82,0.00,,CLR,0.00,VWS V14.00,2013-08-04 09:50:00,
2013-08-04 02:51:00,60.6,55.1,30.00,ESE,112,0.0,0.0,82,0.00,,CLR,0.00,VWS V14.00,2013-08-04 09:51:00,
2013-08-04 02:52:00,60.6,55.1,30.00,ESE,112,0.0,0.0,82,0.00,,CLR,0.00,VWS V14.00,2013-08-04 09:52:00,
2013-08-04 02:55:00,60.6,55.1,30.00,WSW,248,0.0,0.0,82,0.00,,CLR,0.00,VWS V14.00,2013-08-04 09:55:00,
2013-08-04 02:57:00,60.6,55.4,30.00,SSW,202,0.0,0.0,83,0.00,,CLR,0.00,VWS V14.00,2013-08-04 09:57:00,
2013-08-04 03:00:00,60.4,55.3,30.00,SSE,158,0.0,0.0,83,0.00,,CLR,0.00,VWS V14.00,2013-08-04 10:00:00,
2013-08-04 03:02:00,60.4,54.9,30.00,SSW,202,0.0,0.0,82,0.00,,CLR,0.00,VWS V14.00,2013-08-04 10:02:00,
2013-08-04 03:03:00,60.4,54.9,30.00,SSW,202,0.0,0.0,82,0.00,,CLR,0.00,VWS V14.00,2013-08-04 10:03:00,
2013-08-04 03:05:00,60.4,54.9,30.00,East,90,0.0,0.0,82,0.00,,CLR,0.00,VWS V14.00,2013-08-04 10:05:00,
2013-08-04 03:07:00,60.3,54.8,30.00,East,90,0.0,0.0,82,0.00,,CLR,0.00,VWS V14.00,2013-08-04 10:07:00,
2013-08-04 03:08:00,60.3,54.8,30.00,East,90,0.0,0.0,82,0.00,,CLR,0.00,VWS V14.00,2013-08-04 10:08:00,
2013-08-04 03:10:00,60.3,55.1,30.00,West,270,0.0,0.0,83,0.00,,CLR,0.00,VWS V14.00,2013-08-04 10:10:00,
2013-08-04 03:12:00,60.3,55.1,30.00,West,270,0.0,0.0,83,0.00,,CLR,0.00,VWS V14.00,2013-08-04 10:12:00,
2013-08-04 03:13:00,60.3,55.1,30.00,West,270,0.0,0.0,83,0.00,,CLR,0.00,VWS V14.00,2013-08-04 10:13:00,
2013-08-04 03:15:00,60.3,55.1,30.00,WNW,292,0.0,0.0,83,0.00,,CLR,0.00,VWS V14.00,2013-08-04 10:15:00,
2013-08-04 03:16:00,60.3,55.1,30.00,WNW,292,0.0,0.0,83,0.00,,CLR,0.00,VWS V14.00,2013-08-04 10:16:00,
2013-08-04 03:17:00,60.3,55.1,30.00,WNW,292,0.0,0.0,83,0.00,,CLR,0.00,VWS V14.00,2013-08-04 10:17:00,
2013-08-04 03:18:00,60.1,54.9,30.00,SE,135,0.0,0.0,83,0.00,,CLR,0.00,VWS V14.00,2013-08-04 10:18:00,
2013-08-04 03:21:00,60.1,54.9,30.00,SSW,202,0.0,0.0,83,0.00,,CLR,0.00,VWS V14.00,2013-08-04 10:21:00,
2013-08-04 03:22:00,60.1,54.9,30.00,ESE,112,0.0,0.0,83,0.00,,CLR,0.00,VWS V14.00,2013-08-04 10:22:00,
2013-08-04 03:23:00,60.1,54.9,30.00,ESE,112,0.0,0.0,83,0.00,,CLR,0.00,VWS V14.00,2013-08-04 10:23:00,
2013-08-04 03:26:00,60.1,54.9,30.00,ESE,112,0.0,0.0,83,0.00,,CLR,0.00,VWS V14.00,2013-08-04 10:26:00,
2013-08-04 03:27:00,60.1,54.9,30.00,SW,225,0.0,0.0,83,0.00,,CLR,0.00,VWS V14.00,2013-08-04 10:27:00,
2013-08-04 03:28:00,60.1,54.9,30.00,SW,225,0.0,0.0,83,0.00,,CLR,0.00,VWS V14.00,2013-08-04 10:28:00,
2013-08-04 03:31:00,60.1,54.9,30.00,SSW,202,0.0,0.0,83,0.00,,CLR,0.00,VWS V14.00,2013-08-04 10:31:00,
2013-08-04 03:32:00,60.1,54.9,30.00,SE,135,0.0,0.0,83,0.00,,CLR,0.00,VWS V14.00,2013-08-04 10:32:00,
2013-08-04 03:33:00,60.1,54.9,30.00,SE,135,0.0,0.0,83,0.00,,CLR,0.00,VWS V14.00,2013-08-04 10:33:00,
2013-08-04 03:36:00,59.9,54.7,30.00,WSW,248,0.0,0.0,83,0.00,,CLR,0.00,VWS V14.00,2013-08-04 10:36:00,
2013-08-04 03:37:00,59.9,54.7,30.00,SW,225,0.0,0.0,83,0.00,,CLR,0.00,VWS V14.00,2013-08-04 10:37:00,
2013-08-04 03:38:00,59.9,54.7,30.00,SSW,202,0.0,0.0,83,0.00,,CLR,0.00,VWS V14.00,2013-08-04 10:38:00,
2013-08-04 03:41:00,59.9,55.1,30.00,NE,45,0.0,0.0,84,0.00,,CLR,0.00,VWS V14.00,2013-08-04 10:41:00,
2013-08-04 03:42:00,59.9,55.1,30.00,NNW,338,0.0,0.0,84,0.00,,CLR,0.00,VWS V14.00,2013-08-04 10:42:00,
2013-08-04 03:43:00,59.9,55.1,30.00,NNW,338,0.0,0.0,84,0.00,,CLR,0.00,VWS V14.00,2013-08-04 10:43:00,
2013-08-04 03:46:00,59.9,55.1,30.00,WNW,292,0.0,0.0,84,0.00,,CLR,0.00,VWS V14.00,2013-08-04 10:46:00,
2013-08-04 03:47:00,59.9,55.1,30.00,WNW,292,0.0,0.0,84,0.00,,CLR,0.00,VWS V14.00,2013-08-04 10:47:00,
2013-08-04 03:48:00,59.9,55.1,30.00,WNW,292,1.1,1.1,84,0.00,,CLR,0.00,VWS V14.00,2013-08-04 10:48:00,
2013-08-04 03:51:00,59.9,55.1,30.00,South,180,0.0,1.1,84,0.00,,CLR,0.00,VWS V14.00,2013-08-04 10:51:00,
2013-08-04 03:52:00,59.9,55.1,30.00,SSW,202,0.0,1.1,84,0.00,,CLR,0.00,VWS V14.00,2013-08-04 10:52:00,
2013-08-04 03:53:00,59.9,55.1,30.00,SSW,202,0.0,1.1,84,0.00,,CLR,0.00,VWS V14.00,2013-08-04 10:53:00,
2013-08-04 03:56:00,59.7,54.9,30.00,West,270,0.0,1.1,84,0.00,,CLR,0.00,VWS V14.00,2013-08-04 10:56:00,
2013-08-04 03:57:00,59.7,54.9,30.00,WSW,248,0.0,1.1,84,0.00,,CLR,0.00,VWS V14.00,2013-08-04 10:57:00,
2013-08-04 03:58:00,59.7,54.9,30.00,SW,225,0.0,1.1,84,0.00,,CLR,0.00,VWS V14.00,2013-08-04 10:58:00,
2013-08-04 04:01:00,59.7,54.9,30.00,SW,225,0.0,1.1,84,0.00,,CLR,0.00,VWS V14.00,2013-08-04 11:01:00,
2013-08-04 04:02:00,59.5,54.4,30.00,East,90,0.0,1.1,83,0.00,,CLR,0.00,VWS V14.00,2013-08-04 11:02:00,
2013-08-04 04:03:00,59.5,54.4,30.00,ESE,112,0.0,1.1,83,0.00,,CLR,0.00,VWS V14.00,2013-08-04 11:03:00,
2013-08-04 04:06:00,59.5,54.4,30.00,SSW,202,0.0,0.0,83,0.00,,CLR,0.00,VWS V14.00,2013-08-04 11:06:00,
2013-08-04 04:07:00,59.4,54.2,30.00,SSW,202,0.0,0.0,83,0.00,,CLR,0.00,VWS V14.00,2013-08-04 11:07:00,
2013-08-04 04:08:00,59.4,54.2,30.00,SW,225,0.0,0.0,83,0.00,,CLR,0.00,VWS V14.00,2013-08-04 11:08:00,
2013-08-04 04:11:00,59.4,54.2,30.00,SE,135,0.0,1.1,83,0.00,,CLR,0.00,VWS V14.00,2013-08-04 11:11:00,
2013-08-04 04:12:00,59.4,54.2,30.00,NE,45,0.0,1.1,83,0.00,,CLR,0.00,VWS V14.00,2013-08-04 11:12:00,
2013-08-04 04:13:00,59.4,54.2,30.00,SSW,202,0.0,1.1,83,0.00,,CLR,0.00,VWS V14.00,2013-08-04 11:13:00,
2013-08-04 04:16:00,59.4,54.5,30.00,SSW,202,0.0,1.1,84,0.00,,CLR,0.00,VWS V14.00,2013-08-04 11:16:00,
2013-08-04 04:17:00,59.4,54.5,30.00,WNW,292,0.0,1.1,84,0.00,,CLR,0.00,VWS V14.00,2013-08-04 11:17:00,
2013-08-04 04:18:00,59.4,54.5,30.00,WNW,292,0.0,1.1,84,0.00,,CLR,0.00,VWS V14.00,2013-08-04 11:18:00,
2013-08-04 04:21:00,59.4,54.5,30.00,West,270,0.0,1.1,84,0.00,,CLR,0.00,VWS V14.00,2013-08-04 11:21:00,
2013-08-04 04:22:00,59.4,54.5,30.00,West,270,0.0,1.1,84,0.00,,CLR,0.00,VWS V14.00,2013-08-04 11:22:00,
2013-08-04 04:23:00,59.4,54.5,30.00,WSW,248,0.0,1.1,84,0.00,,CLR,0.00,VWS V14.00,2013-08-04 11:23:00,
2013-08-04 04:26:00,59.4,54.5,30.00,NNW,338,0.0,0.0,84,0.00,,CLR,0.00,VWS V14.00,2013-08-04 11:26:00,
2013-08-04 04:27:00,59.4,54.5,30.00,NNW,338,0.0,0.0,84,0.00,,CLR,0.00,VWS V14.00,2013-08-04 11:27:00,
2013-08-04 04:28:00,59.4,54.5,30.00,NNW,338,0.0,0.0,84,0.00,,CLR,0.00,VWS V14.00,2013-08-04 11:28:00,
2013-08-04 04:29:00,59.2,54.4,30.00,WSW,248,0.0,0.0,84,0.00,,CLR,0.00,VWS V14.00,2013-08-04 11:29:00,
2013-08-04 04:31:00,59.2,54.4,30.00,WSW,248,0.0,0.0,84,0.00,,CLR,0.00,VWS V14.00,2013-08-04 11:31:00,
2013-08-04 04:32:00,59.2,54.4,30.00,West,270,0.0,0.0,84,0.00,,CLR,0.00,VWS V14.00,2013-08-04 11:32:00,
2013-08-04 04:33:00,59.2,54.4,30.00,West,270,0.0,0.0,84,0.00,,CLR,0.00,VWS V14.00,2013-08-04 11:33:00,
2013-08-04 04:34:00,59.2,54.4,30.00,West,270,0.0,0.0,84,0.00,,CLR,0.00,VWS V14.00,2013-08-04 11:34:00,
2013-08-04 04:37:00,59.2,54.4,30.00,West,270,0.0,0.0,84,0.00,,CLR,0.00,VWS V14.00,2013-08-04 11:37:00,
2013-08-04 04:38:00,59.2,54.4,30.00,SSE,158,0.0,0.0,84,0.00,,CLR,0.00,VWS V14.00,2013-08-04 11:38:00,
2013-08-04 04:39:00,59.2,54.4,30.00,SSW,202,0.0,0.0,84,0.00,,CLR,0.00,VWS V14.00,2013-08-04 11:39:00,
2013-08-04 04:42:00,59.0,54.2,30.00,WSW,248,1.1,1.1,84,0.00,,CLR,0.00,VWS V14.00,2013-08-04 11:42:00,
2013-08-04 04:43:00,59.0,54.2,30.00,WSW,248,1.1,1.1,84,0.00,,CLR,0.00,VWS V14.00,2013-08-04 11:43:00,
2013-08-04 04:44:00,59.0,54.2,30.00,SSW,202,0.0,1.1,84,0.00,,CLR,0.00,VWS V14.00,2013-08-04 11:44:00,
2013-08-04 04:47:00,59.0,54.2,30.00,WNW,292,0.0,1.1,84,0.00,,CLR,0.00,VWS V14.00,2013-08-04 11:47:00,
2013-08-04 04:48:00,59.0,54.2,30.00,WNW,292,0.0,1.1,84,0.00,,CLR,0.00,VWS V14.00,2013-08-04 11:48:00,
2013-08-04 04:49:00,59.0,54.2,30.00,WNW,292,0.0,1.1,84,0.00,,CLR,0.00,VWS V14.00,2013-08-04 11:49:00,
2013-08-04 04:52:00,58.8,54.0,30.00,WSW,248,0.0,1.1,84,0.00,,CLR,0.00,VWS V14.00,2013-08-04 11:52:00,
2013-08-04 04:53:00,58.8,54.0,30.00,SE,135,0.0,1.1,84,0.00,,CLR,0.00,VWS V14.00,2013-08-04 11:53:00,
2013-08-04 04:54:00,58.8,54.0,30.00,East,90,0.0,1.1,84,0.00,,CLR,0.00,VWS V14.00,2013-08-04 11:54:00,
2013-08-04 04:57:00,58.8,54.0,30.00,ESE,112,0.0,1.1,84,0.00,,CLR,0.00,VWS V14.00,2013-08-04 11:57:00,
2013-08-04 04:58:00,58.6,53.8,30.00,East,90,0.0,1.1,84,0.00,,CLR,0.00,VWS V14.00,2013-08-04 11:58:00,
2013-08-04 04:59:00,58.6,53.8,30.00,East,90,0.0,1.1,84,0.00,,CLR,0.00,VWS V14.00,2013-08-04 11:59:00,
2013-08-04 05:02:00,58.6,53.8,30.00,East,90,0.0,1.1,84,0.00,,CLR,0.00,VWS V14.00,2013-08-04 12:02:00,
2013-08-04 05:03:00,58.5,53.7,30.00,East,90,0.0,0.0,84,0.00,,CLR,0.00,VWS V14.00,2013-08-04 12:03:00,
2013-08-04 05:04:00,58.5,53.7,30.00,East,90,0.0,0.0,84,0.00,,CLR,0.00,VWS V14.00,2013-08-04 12:04:00,
2013-08-04 05:07:00,58.5,53.7,30.00,SSE,158,0.0,0.0,84,0.00,,CLR,0.00,VWS V14.00,2013-08-04 12:07:00,
2013-08-04 05:08:00,58.5,53.7,30.00,East,90,0.0,0.0,84,0.00,,CLR,0.00,VWS V14.00,2013-08-04 12:08:00,
2013-08-04 05:09:00,58.5,53.7,30.00,WSW,248,0.0,0.0,84,0.00,,CLR,0.00,VWS V14.00,2013-08-04 12:09:00,
2013-08-04 05:12:00,58.5,53.7,30.00,East,90,0.0,0.0,84,0.00,,CLR,0.00,VWS V14.00,2013-08-04 12:12:00,
2013-08-04 05:13:00,58.5,53.7,30.00,SW,225,0.0,0.0,84,0.00,,CLR,0.00,VWS V14.00,2013-08-04 12:13:00,
2013-08-04 05:14:00,58.5,53.7,30.00,SW,225,0.0,0.0,84,0.00,,CLR,0.00,VWS V14.00,2013-08-04 12:14:00,
2013-08-04 05:17:00,58.5,53.7,30.00,WSW,248,0.0,0.0,84,0.00,,CLR,0.00,VWS V14.00,2013-08-04 12:17:00,
2013-08-04 05:18:00,58.5,53.7,30.00,North,0,0.0,0.0,84,0.00,,CLR,0.00,VWS V14.00,2013-08-04 12:18:00,
2013-08-04 05:19:00,58.5,53.7,30.00,West,270,0.0,0.0,84,0.00,,CLR,0.00,VWS V14.00,2013-08-04 12:19:00,
2013-08-04 05:23:00,58.5,53.7,30.00,SW,225,0.0,0.0,84,0.00,,CLR,0.00,VWS V14.00,2013-08-04 12:23:00,
2013-08-04 05:24:00,58.5,53.7,30.00,SSW,202,0.0,0.0,84,0.00,,CLR,0.00,VWS V14.00,2013-08-04 12:24:00,
2013-08-04 05:28:00,58.5,54.0,30.00,WSW,248,0.0,0.0,85,0.00,,CLR,0.00,VWS V14.00,2013-08-04 12:28:00,
2013-08-04 05:29:00,58.6,54.2,30.00,SE,135,0.0,0.0,85,0.00,,CLR,0.00,VWS V14.00,2013-08-04 12:29:00,
2013-08-04 05:33:00,58.6,54.2,30.00,WNW,292,0.0,0.0,85,0.00,,SCT006,0.00,VWS V14.00,2013-08-04 12:33:00,
2013-08-04 05:34:00,58.6,54.2,30.00,West,270,0.0,0.0,85,0.00,,SCT006,0.00,VWS V14.00,2013-08-04 12:34:00,
2013-08-04 05:38:00,58.6,54.2,30.00,WNW,292,0.0,0.0,85,0.00,,SCT006,0.00,VWS V14.00,2013-08-04 12:38:00,
2013-08-04 05:39:00,58.6,54.2,30.00,SW,225,0.0,0.0,85,0.00,,SCT006,0.00,VWS V14.00,2013-08-04 12:39:00,
2013-08-04 05:43:00,58.6,54.2,30.00,West,270,0.0,0.0,85,0.00,,SCT006,0.00,VWS V14.00,2013-08-04 12:43:00,
2013-08-04 05:44:00,58.6,54.2,30.00,West,270,0.0,0.0,85,0.00,,SCT006,0.00,VWS V14.00,2013-08-04 12:44:00,
2013-08-04 05:48:00,58.6,54.5,30.00,West,270,0.0,0.0,86,0.00,,BKN006,0.00,VWS V14.00,2013-08-04 12:48:00,
2013-08-04 05:49:00,58.6,54.5,30.00,West,270,0.0,0.0,86,0.00,,BKN006,0.00,VWS V14.00,2013-08-04 12:49:00,
2013-08-04 05:53:00,58.8,54.7,30.00,WNW,292,0.0,0.0,86,0.00,,BKN006,0.00,VWS V14.00,2013-08-04 12:53:00,
2013-08-04 05:54:00,58.8,54.7,30.00,WSW,248,0.0,0.0,86,0.00,,BKN006,0.00,VWS V14.00,2013-08-04 12:54:00,
2013-08-04 05:55:00,58.8,54.7,30.00,WSW,248,0.0,0.0,86,0.00,,BKN006,0.00,VWS V14.00,2013-08-04 12:55:00,
2013-08-04 05:58:00,58.8,54.7,30.00,SSW,202,0.0,0.0,86,0.00,,BKN006,0.00,VWS V14.00,2013-08-04 12:58:00,
2013-08-04 05:59:00,58.8,54.7,30.00,SSW,202,0.0,0.0,86,0.00,,BKN006,0.00,VWS V14.00,2013-08-04 12:59:00,
2013-08-04 06:00:00,58.8,54.7,30.00,SSW,202,0.0,0.0,86,0.00,,BKN006,0.00,VWS V14.00,2013-08-04 13:00:00,
2013-08-04 06:03:00,59.0,54.8,30.00,SE,135,0.0,0.0,86,0.00,,BKN006,0.00,VWS V14.00,2013-08-04 13:03:00,
2013-08-04 06:04:00,59.0,54.8,30.00,SE,135,0.0,0.0,86,0.00,,CLR,0.00,VWS V14.00,2013-08-04 13:04:00,
2013-08-04 06:05:00,59.0,54.8,30.00,SSE,158,0.0,0.0,86,0.00,,CLR,0.00,VWS V14.00,2013-08-04 13:05:00,
2013-08-04 06:08:00,59.0,54.8,30.00,WSW,248,0.0,0.0,86,0.00,,BKN006,0.00,VWS V14.00,2013-08-04 13:08:00,
2013-08-04 06:09:00,59.0,54.8,30.00,NNW,338,0.9,0.9,86,0.00,,BKN006,0.00,VWS V14.00,2013-08-04 13:09:00,
2013-08-04 06:10:00,59.0,54.8,30.00,NNW,338,0.9,0.9,86,0.00,,BKN006,0.00,VWS V14.00,2013-08-04 13:10:00,
2013-08-04 06:13:00,59.0,54.8,30.00,WSW,248,0.0,0.9,86,0.00,,BKN006,0.00,VWS V14.00,2013-08-04 13:13:00,
2013-08-04 06:14:00,59.2,55.0,30.00,SW,225,0.0,0.9,86,0.00,,BKN006,0.00,VWS V14.00,2013-08-04 13:14:00,
2013-08-04 06:15:00,59.2,55.0,30.00,WSW,248,0.0,0.9,86,0.00,,BKN006,0.00,VWS V14.00,2013-08-04 13:15:00,
2013-08-04 06:18:00,59.2,55.0,30.00,WSW,248,0.0,0.9,86,0.00,,BKN006,0.00,VWS V14.00,2013-08-04 13:18:00,
2013-08-04 06:19:00,59.2,55.0,30.00,WSW,248,0.0,0.9,86,0.00,,BKN006,0.00,VWS V14.00,2013-08-04 13:19:00,
2013-08-04 06:20:00,59.2,55.0,30.00,WSW,248,0.0,0.9,86,0.00,,BKN006,0.00,VWS V14.00,2013-08-04 13:20:00,
2013-08-04 06:23:00,59.2,55.0,30.00,West,270,0.0,0.9,86,0.00,,BKN006,0.00,VWS V14.00,2013-08-04 13:23:00,
2013-08-04 06:24:00,59.2,55.0,30.00,SSE,158,0.0,0.9,86,0.00,,BKN006,0.00,VWS V14.00,2013-08-04 13:24:00,
2013-08-04 06:25:00,59.4,55.2,30.00,WSW,248,0.0,0.9,86,0.00,,BKN006,0.00,VWS V14.00,2013-08-04 13:25:00,
2013-08-04 06:28:00,59.4,55.2,30.00,WSW,248,0.0,0.0,86,0.00,,BKN006,0.00,VWS V14.00,2013-08-04 13:28:00,
2013-08-04 06:29:00,59.4,55.2,30.00,WSW,248,0.0,0.0,86,0.00,,BKN006,0.00,VWS V14.00,2013-08-04 13:29:00,
2013-08-04 06:30:00,59.5,55.3,30.00,WSW,248,0.0,0.0,86,0.00,,BKN006,0.00,VWS V14.00,2013-08-04 13:30:00,
2013-08-04 06:34:00,59.5,55.3,30.00,WSW,248,0.0,0.0,86,0.00,,CLR,0.00,VWS V14.00,2013-08-04 13:34:00,
2013-08-04 06:35:00,59.5,55.3,30.00,WSW,248,0.0,0.0,86,0.00,,CLR,0.00,VWS V14.00,2013-08-04 13:35:00,
2013-08-04 06:39:00,59.7,55.5,30.00,WSW,248,0.0,0.0,86,0.00,,CLR,0.00,VWS V14.00,2013-08-04 13:39:00,
2013-08-04 06:40:00,59.7,55.5,30.00,West,270,0.0,0.0,86,0.00,,CLR,0.00,VWS V14.00,2013-08-04 13:40:00,
2013-08-04 06:44:00,59.9,55.4,30.00,SSW,202,0.0,0.0,85,0.00,,CLR,0.00,VWS V14.00,2013-08-04 13:44:00,
2013-08-04 06:45:00,59.9,55.4,30.00,SSW,202,0.0,0.0,85,0.00,,CLR,0.00,VWS V14.00,2013-08-04 13:45:00,
2013-08-04 06:49:00,60.1,55.6,30.00,WSW,248,0.0,0.0,85,0.00,,CLR,0.00,VWS V14.00,2013-08-04 13:49:00,
2013-08-04 06:50:00,60.3,55.7,30.00,WSW,248,0.0,0.0,85,0.00,,CLR,0.00,VWS V14.00,2013-08-04 13:50:00,
2013-08-04 06:54:00,60.6,56.1,30.00,East,90,0.0,0.0,85,0.00,,CLR,0.00,VWS V14.00,2013-08-04 13:54:00,
2013-08-04 06:55:00,61.0,56.5,30.00,ENE,68,0.0,0.0,85,0.00,,CLR,0.00,VWS V14.00,2013-08-04 13:55:00,
2013-08-04 06:59:00,61.7,56.8,30.00,WNW,292,0.9,0.9,84,0.00,,CLR,0.00,VWS V14.00,2013-08-04 13:59:00,
2013-08-04 07:00:00,61.9,57.0,30.00,WNW,292,0.0,0.9,84,0.00,,CLR,0.00,VWS V14.00,2013-08-04 14:00:00,
2013-08-04 07:04:00,62.2,57.0,30.00,West,270,0.0,0.9,83,0.00,,CLR,0.00,VWS V14.00,2013-08-04 14:04:00,
2013-08-04 07:05:00,62.2,57.0,30.00,West,270,0.0,0.9,83,0.00,,CLR,0.00,VWS V14.00,2013-08-04 14:05:00,
2013-08-04 07:09:00,62.2,57.0,30.00,NNE,22,0.0,0.9,83,0.00,,CLR,0.00,VWS V14.00,2013-08-04 14:09:00,
2013-08-04 07:10:00,62.2,57.0,30.00,NNE,22,0.0,0.9,83,0.00,,CLR,0.00,VWS V14.00,2013-08-04 14:10:00,
2013-08-04 07:14:00,62.4,57.2,30.00,WNW,292,0.0,0.9,83,0.00,,CLR,0.00,VWS V14.00,2013-08-04 14:14:00,
2013-08-04 07:15:00,62.6,57.0,30.00,WNW,292,0.0,0.9,82,0.00,,CLR,0.00,VWS V14.00,2013-08-04 14:15:00,
2013-08-04 07:16:00,62.8,57.2,30.00,WNW,292,0.0,0.0,82,0.00,,CLR,0.00,VWS V14.00,2013-08-04 14:16:00,
2013-08-04 07:19:00,63.1,57.6,30.00,WNW,292,0.0,0.0,82,0.00,,CLR,0.00,VWS V14.00,2013-08-04 14:19:00,
2013-08-04 07:20:00,63.5,57.9,30.00,WNW,292,0.0,0.0,82,0.00,,CLR,0.00,VWS V14.00,2013-08-04 14:20:00,
2013-08-04 07:21:00,63.5,57.9,30.00,East,90,0.0,0.0,82,0.00,,CLR,0.00,VWS V14.00,2013-08-04 14:21:00,
2013-08-04 07:24:00,64.2,58.3,30.00,NNW,338,0.0,0.0,81,0.00,,CLR,0.00,VWS V14.00,2013-08-04 14:24:00,
2013-08-04 07:25:00,64.6,58.3,30.00,NNW,338,0.0,0.0,80,0.00,,CLR,0.00,VWS V14.00,2013-08-04 14:25:00,
2013-08-04 07:26:00,64.6,58.3,30.00,NNW,338,0.0,0.0,80,0.00,,CLR,0.00,VWS V14.00,2013-08-04 14:26:00,
2013-08-04 07:29:00,64.9,58.3,30.00,NW,315,0.0,0.0,79,0.00,,CLR,0.00,VWS V14.00,2013-08-04 14:29:00,
2013-08-04 07:30:00,65.1,58.5,30.00,NW,315,0.0,0.0,79,0.00,,CLR,0.00,VWS V14.00,2013-08-04 14:30:00,
2013-08-04 07:31:00,65.1,58.5,30.00,NW,315,0.0,0.0,79,0.00,,CLR,0.00,VWS V14.00,2013-08-04 14:31:00,
2013-08-04 07:34:00,65.5,58.5,30.00,NE,45,0.0,0.0,78,0.00,,BKN019,0.00,VWS V14.00,2013-08-04 14:34:00,
2013-08-04 07:35:00,65.5,58.5,30.00,NNW,338,0.0,0.0,78,0.00,,BKN019,0.00,VWS V14.00,2013-08-04 14:35:00,
2013-08-04 07:36:00,65.5,58.5,30.00,NE,45,0.0,0.0,78,0.00,,BKN019,0.00,VWS V14.00,2013-08-04 14:36:00,
2013-08-04 07:39:00,65.8,58.4,30.00,NNW,338,0.0,0.0,77,0.00,,BKN019,0.00,VWS V14.00,2013-08-04 14:39:00,
2013-08-04 07:40:00,65.8,58.4,30.00,NNW,338,0.0,0.0,77,0.00,,BKN019,0.00,VWS V14.00,2013-08-04 14:40:00,
2013-08-04 07:41:00,66.0,58.6,30.00,NNW,338,0.0,0.0,77,0.00,,BKN019,0.00,VWS V14.00,2013-08-04 14:41:00,
2013-08-04 07:44:00,66.2,58.4,30.00,NNE,22,0.0,1.3,76,0.00,,BKN019,0.00,VWS V14.00,2013-08-04 14:44:00,
2013-08-04 07:45:00,66.2,58.4,30.00,NNE,22,0.0,1.3,76,0.00,,BKN019,0.00,VWS V14.00,2013-08-04 14:45:00,
2013-08-04 07:46:00,66.6,58.8,30.00,NW,315,0.0,1.3,76,0.00,,BKN019,0.00,VWS V14.00,2013-08-04 14:46:00,
2013-08-04 07:49:00,66.6,58.4,30.00,ENE,68,0.0,1.3,75,0.00,,OVC017,0.00,VWS V14.00,2013-08-04 14:49:00,
2013-08-04 07:50:00,66.7,58.6,30.00,ESE,112,2.7,2.7,75,0.00,,OVC017,0.00,VWS V14.00,2013-08-04 14:50:00,
2013-08-04 07:51:00,66.7,58.6,30.00,ESE,112,2.7,2.7,75,0.00,,OVC017,0.00,VWS V14.00,2013-08-04 14:51:00,
2013-08-04 07:52:00,66.7,58.6,30.00,East,90,2.0,2.7,75,0.00,,OVC017,0.00,VWS V14.00,2013-08-04 14:52:00,
2013-08-04 07:54:00,66.7,58.6,30.00,NNE,22,0.9,2.7,75,0.00,,OVC017,0.00,VWS V14.00,2013-08-04 14:54:00,
2013-08-04 07:55:00,66.9,58.4,30.00,ENE,68,0.9,2.7,74,0.00,,OVC017,0.00,VWS V14.00,2013-08-04 14:55:00,
2013-08-04 07:56:00,66.9,58.4,30.00,NE,45,0.0,2.7,74,0.00,,OVC017,0.00,VWS V14.00,2013-08-04 14:56:00,
2013-08-04 07:57:00,66.9,58.4,30.00,NNW,338,0.0,2.7,74,0.00,,OVC017,0.00,VWS V14.00,2013-08-04 14:57:00,
2013-08-04 07:59:00,67.3,58.7,30.00,ENE,68,0.9,2.7,74,0.00,,OVC017,0.00,VWS V14.00,2013-08-04 14:59:00,
2013-08-04 08:00:00,67.5,58.9,30.00,ENE,68,0.0,2.7,74,0.00,,OVC017,0.00,VWS V14.00,2013-08-04 15:00:00,
2013-08-04 08:01:00,67.5,58.9,30.00,ENE,68,0.0,2.7,74,0.00,,OVC017,0.00,VWS V14.00,2013-08-04 15:01:00,
2013-08-04 08:02:00,67.6,59.1,30.00,ENE,68,0.0,1.1,74,0.00,,OVC017,0.00,VWS V14.00,2013-08-04 15:02:00,
2013-08-04 08:04:00,67.8,58.9,30.00,NW,315,0.0,1.1,73,0.00,,CLR,0.00,VWS V14.00,2013-08-04 15:04:00,
2013-08-04 08:05:00,68.0,58.7,30.00,SSE,158,0.0,1.1,72,0.00,,OVC017,0.00,VWS V14.00,2013-08-04 15:05:00,
2013-08-04 08:06:00,68.0,58.7,30.00,ENE,68,0.0,1.1,72,0.00,,OVC017,0.00,VWS V14.00,2013-08-04 15:06:00,
2013-08-04 08:07:00,68.2,58.8,30.00,NE,45,0.0,1.1,72,0.00,,OVC017,0.00,VWS V14.00,2013-08-04 15:07:00,
2013-08-04 08:09:00,68.2,58.8,30.00,NNW,338,0.0,1.1,72,0.00,,OVC017,0.00,VWS V14.00,2013-08-04 15:09:00,
2013-08-04 08:10:00,68.2,58.8,30.00,ENE,68,0.0,1.1,72,0.00,,OVC017,0.00,VWS V14.00,2013-08-04 15:10:00,
2013-08-04 08:11:00,68.2,58.8,30.00,ENE,68,1.6,1.6,72,0.00,,OVC017,0.00,VWS V14.00,2013-08-04 15:11:00,
2013-08-04 08:12:00,68.2,58.8,30.00,ENE,68,1.6,1.6,72,0.00,,OVC017,0.00,VWS V14.00,2013-08-04 15:12:00,
2013-08-04 08:14:00,68.7,59.3,30.00,East,90,1.3,2.7,72,0.00,,OVC017,0.00,VWS V14.00,2013-08-04 15:14:00,
2013-08-04 08:15:00,68.7,59.3,30.00,ENE,68,1.1,2.7,72,0.00,,OVC017,0.00,VWS V14.00,2013-08-04 15:15:00,
2013-08-04 08:16:00,68.7,59.0,30.00,ENE,68,1.1,2.7,71,0.00,,OVC017,0.00,VWS V14.00,2013-08-04 15:16:00,
2013-08-04 08:17:00,68.7,59.0,30.00,East,90,0.0,2.7,71,0.00,,OVC017,0.00,VWS V14.00,2013-08-04 15:17:00,
2013-08-04 08:19:00,68.7,59.3,30.00,WNW,292,2.5,2.7,72,0.00,,OVC017,0.00,VWS V14.00,2013-08-04 15:19:00,
2013-08-04 08:20:00,68.4,58.6,30.00,ESE,112,2.5,2.7,71,0.00,,OVC017,0.00,VWS V14.00,2013-08-04 15:20:00,
2013-08-04 08:21:00,68.4,58.6,30.00,ESE,112,2.5,2.7,71,0.00,,OVC017,0.00,VWS V14.00,2013-08-04 15:21:00,
2013-08-04 08:22:00,68.4,58.6,30.00,NNW,338,0.0,2.7,71,0.00,,OVC017,0.00,VWS V14.00,2013-08-04 15:22:00,
2013-08-04 08:24:00,68.4,58.6,30.00,NNW,338,0.0,2.5,71,0.00,,OVC017,0.00,VWS V14.00,2013-08-04 15:24:00,
2013-08-04 08:25:00,68.0,58.3,30.00,NE,45,0.0,2.5,71,0.00,,OVC017,0.00,VWS V14.00,2013-08-04 15:25:00,
2013-08-04 08:26:00,68.0,58.3,30.00,ENE,68,0.0,2.5,71,0.00,,OVC017,0.00,VWS V14.00,2013-08-04 15:26:00,
2013-08-04 08:28:00,67.8,58.5,30.00,WSW,248,1.3,2.5,72,0.00,,OVC017,0.00,VWS V14.00,2013-08-04 15:28:00,
2013-08-04 08:29:00,67.5,58.1,30.00,NE,45,0.0,2.5,72,0.00,,OVC017,0.00,VWS V14.00,2013-08-04 15:29:00,
2013-08-04 08:30:00,67.5,58.1,30.00,NE,45,0.0,1.3,72,0.00,,OVC017,0.00,VWS V14.00,2013-08-04 15:30:00,
2013-08-04 08:31:00,67.5,58.1,30.00,NE,45,0.0,1.3,72,0.00,,OVC017,0.00,VWS V14.00,2013-08-04 15:31:00,
2013-08-04 08:32:00,67.5,58.1,30.00,NE,45,0.0,1.3,72,0.00,,OVC017,0.00,VWS V14.00,2013-08-04 15:32:00,
2013-08-04 08:33:00,67.5,58.1,30.00,NNE,22,0.0,1.3,72,0.00,,OVC017,0.00,VWS V14.00,2013-08-04 15:33:00,
2013-08-04 08:34:00,67.3,58.0,30.00,ENE,68,0.9,1.3,72,0.00,,OVC017,0.00,VWS V14.00,2013-08-04 15:34:00,
2013-08-04 08:35:00,67.1,57.8,30.00,North,0,0.0,1.3,72,0.00,,OVC017,0.00,VWS V14.00,2013-08-04 15:35:00,
2013-08-04 08:36:00,67.1,57.8,30.00,North,0,0.0,1.3,72,0.00,,OVC017,0.00,VWS V14.00,2013-08-04 15:36:00,
2013-08-04 08:37:00,67.1,57.8,30.00,ESE,112,0.0,0.9,72,0.00,,OVC017,0.00,VWS V14.00,2013-08-04 15:37:00,
2013-08-04 08:38:00,67.1,57.8,30.00,ESE,112,0.0,0.9,72,0.00,,OVC017,0.00,VWS V14.00,2013-08-04 15:38:00,
2013-08-04 08:39:00,67.1,57.8,30.00,NE,45,0.0,0.0,72,0.00,,OVC017,0.00,VWS V14.00,2013-08-04 15:39:00,
2013-08-04 08:40:00,67.1,57.8,30.00,WSW,248,0.0,0.0,72,0.00,,OVC017,0.00,VWS V14.00,2013-08-04 15:40:00,
2013-08-04 08:41:00,66.9,57.2,30.00,WSW,248,0.0,0.0,71,0.00,,OVC017,0.00,VWS V14.00,2013-08-04 15:41:00,
2013-08-04 08:42:00,66.9,57.2,30.00,NNW,338,0.0,0.0,71,0.00,,OVC017,0.00,VWS V14.00,2013-08-04 15:42:00,
2013-08-04 08:43:00,66.9,57.2,30.00,NNW,338,0.0,0.0,71,0.00,,OVC017,0.00,VWS V14.00,2013-08-04 15:43:00,
2013-08-04 08:44:00,66.9,57.2,30.00,NNW,338,0.0,0.0,71,0.00,,OVC017,0.00,VWS V14.00,2013-08-04 15:44:00,
2013-08-04 08:45:00,66.9,57.2,30.00,East,90,0.0,0.0,71,0.00,,OVC017,0.00,VWS V14.00,2013-08-04 15:45:00,
2013-08-04 08:46:00,67.8,58.1,30.00,East,90,0.0,0.0,71,0.00,,OVC017,0.00,VWS V14.00,2013-08-04 15:46:00,
2013-08-04 08:47:00,67.8,58.1,30.00,East,90,0.0,0.0,71,0.00,,OVC017,0.00,VWS V14.00,2013-08-04 15:47:00,
2013-08-04 08:48:00,68.4,58.6,30.00,NNE,22,0.0,0.0,71,0.00,,OVC017,0.00,VWS V14.00,2013-08-04 15:48:00,
2013-08-04 08:49:00,68.7,59.0,30.00,NNE,22,0.0,0.0,71,0.00,,OVC015,0.00,VWS V14.00,2013-08-04 15:49:00,
2013-08-04 08:50:00,68.7,59.0,30.00,ENE,68,2.2,2.2,71,0.00,,OVC015,0.00,VWS V14.00,2013-08-04 15:50:00,
2013-08-04 08:51:00,68.7,59.0,30.00,ENE,68,2.2,2.2,71,0.00,,OVC015,0.00,VWS V14.00,2013-08-04 15:51:00,
2013-08-04 08:52:00,68.7,59.0,30.00,ENE,68,0.0,2.2,71,0.00,,OVC015,0.00,VWS V14.00,2013-08-04 15:52:00,
2013-08-04 08:53:00,68.7,59.0,30.00,ENE,68,0.0,2.2,71,0.00,,OVC015,0.00,VWS V14.00,2013-08-04 15:53:00,
2013-08-04 08:54:00,68.7,59.0,30.00,NE,45,0.0,2.2,71,0.00,,OVC015,0.00,VWS V14.00,2013-08-04 15:54:00,
2013-08-04 08:55:00,69.3,59.1,30.00,NW,315,0.0,2.2,70,0.00,,OVC015,0.00,VWS V14.00,2013-08-04 15:55:00,
2013-08-04 08:56:00,69.3,59.1,30.00,NW,315,0.0,2.2,70,0.00,,OVC017,0.00,VWS V14.00,2013-08-04 15:56:00,
2013-08-04 08:57:00,69.8,59.6,30.00,WSW,248,0.9,2.2,70,0.00,,OVC015,0.00,VWS V14.00,2013-08-04 15:57:00,
2013-08-04 08:58:00,69.8,59.6,30.00,East,90,0.0,2.2,70,0.00,,OVC015,0.00,VWS V14.00,2013-08-04 15:58:00,
2013-08-04 08:59:00,69.8,59.6,30.00,SW,225,0.9,2.2,70,0.00,,OVC015,0.00,VWS V14.00,2013-08-04 15:59:00,
2013-08-04 09:00:00,69.8,59.6,30.00,SW,225,0.9,2.2,70,0.00,,OVC015,0.00,VWS V14.00,2013-08-04 16:00:00,
2013-08-04 09:01:00,69.8,59.6,30.00,SW,225,0.9,2.2,70,0.00,,OVC015,0.00,VWS V14.00,2013-08-04 16:01:00,
2013-08-04 09:02:00,70.2,59.9,30.00,NNW,338,0.0,2.2,70,0.00,,OVC015,0.00,VWS V14.00,2013-08-04 16:02:00,
2013-08-04 09:03:00,70.2,59.9,30.00,NNW,338,0.0,2.2,70,0.00,,OVC015,0.00,VWS V14.00,2013-08-04 16:03:00,
2013-08-04 09:04:00,70.2,59.9,30.00,NNW,338,0.0,2.2,70,0.00,,OVC017,0.00,VWS V14.00,2013-08-04 16:04:00,
2013-08-04 09:05:00,70.9,60.6,30.00,East,90,0.0,0.9,70,0.00,,OVC015,0.00,VWS V14.00,2013-08-04 16:05:00,
2013-08-04 09:06:00,70.9,60.6,30.00,East,90,0.0,0.9,70,0.00,,OVC015,0.00,VWS V14.00,2013-08-04 16:06:00,
2013-08-04 09:07:00,70.7,60.5,30.00,East,90,0.0,0.9,70,0.00,,OVC015,0.00,VWS V14.00,2013-08-04 16:07:00,
2013-08-04 09:08:00,70.7,60.5,30.00,East,90,0.0,0.9,70,0.00,,OVC015,0.00,VWS V14.00,2013-08-04 16:08:00,
2013-08-04 09:09:00,70.7,60.5,30.00,NE,45,2.0,2.0,70,0.00,,OVC015,0.00,VWS V14.00,2013-08-04 16:09:00,
2013-08-04 09:10:00,70.5,59.9,30.00,NE,45,0.0,2.0,69,0.00,,OVC015,0.00,VWS V14.00,2013-08-04 16:10:00,
2013-08-04 09:11:00,70.5,59.9,30.00,NE,45,0.0,2.0,69,0.00,,OVC015,0.00,VWS V14.00,2013-08-04 16:11:00,
2013-08-04 09:12:00,70.5,59.9,30.00,East,90,1.3,2.0,69,0.00,,OVC015,0.00,VWS V14.00,2013-08-04 16:12:00,
2013-08-04 09:13:00,70.3,59.7,30.00,NNW,338,0.0,2.0,69,0.00,,OVC015,0.00,VWS V14.00,2013-08-04 16:13:00,
2013-08-04 09:14:00,70.5,60.3,30.00,SSW,202,1.1,2.0,70,0.00,,OVC015,0.00,VWS V14.00,2013-08-04 16:14:00,
2013-08-04 09:15:00,70.3,59.7,30.00,NNW,338,0.0,2.0,69,0.00,,OVC015,0.00,VWS V14.00,2013-08-04 16:15:00,
2013-08-04 09:16:00,70.3,59.7,30.00,WNW,292,0.0,2.0,69,0.00,,OVC017,0.00,VWS V14.00,2013-08-04 16:16:00,
2013-08-04 09:17:00,70.3,59.7,30.00,WNW,292,0.0,2.0,69,0.00,,OVC015,0.00,VWS V14.00,2013-08-04 16:17:00,
2013-08-04 09:18:00,70.3,59.7,30.00,WNW,292,0.0,2.0,69,0.00,,OVC015,0.00,VWS V14.00,2013-08-04 16:18:00,
2013-08-04 09:19:00,70.3,59.7,30.00,WSW,248,0.0,2.0,69,0.00,,OVC015,0.00,VWS V14.00,2013-08-04 16:19:00,
2013-08-04 09:20:00,70.3,59.7,30.00,WNW,292,0.0,2.0,69,0.00,,OVC015,0.00,VWS V14.00,2013-08-04 16:20:00,
2013-08-04 09:21:00,70.3,59.7,30.00,South,180,0.0,2.0,69,0.00,,OVC015,0.00,VWS V14.00,2013-08-04 16:21:00,
2013-08-04 09:22:00,70.3,59.7,30.00,West,270,0.0,2.0,69,0.00,,OVC015,0.00,VWS V14.00,2013-08-04 16:22:00,
2013-08-04 09:23:00,69.4,58.8,30.00,WNW,292,0.0,2.0,69,0.00,,OVC015,0.00,VWS V14.00,2013-08-04 16:23:00,
2013-08-04 09:24:00,69.4,58.8,30.00,WNW,292,0.0,2.0,69,0.00,,OVC015,0.00,VWS V14.00,2013-08-04 16:24:00,
2013-08-04 09:25:00,69.4,58.8,30.00,NNW,338,0.0,2.0,69,0.00,,OVC015,0.00,VWS V14.00,2013-08-04 16:25:00,
2013-08-04 09:26:00,69.4,58.8,30.00,North,0,0.0,2.0,69,0.00,,OVC015,0.00,VWS V14.00,2013-08-04 16:26:00,
2013-08-04 09:27:00,69.4,58.8,30.00,WNW,292,0.0,1.3,69,0.00,,OVC015,0.00,VWS V14.00,2013-08-04 16:27:00,
2013-08-04 09:28:00,69.6,59.0,30.00,NNW,338,0.0,1.3,69,0.00,,OVC015,0.00,VWS V14.00,2013-08-04 16:28:00,
2013-08-04 09:30:00,69.6,59.0,30.00,NNW,338,0.0,1.1,69,0.00,,OVC015,0.00,VWS V14.00,2013-08-04 16:30:00,
2013-08-04 09:31:00,69.6,59.0,30.00,NNW,338,0.0,1.1,69,0.00,,SCT017,0.00,VWS V14.00,2013-08-04 16:31:00,
2013-08-04 09:32:00,69.8,59.2,30.00,NNE,22,0.0,1.1,69,0.00,,CLR,0.00,VWS V14.00,2013-08-04 16:32:00,
2013-08-04 09:33:00,69.8,59.2,30.00,WNW,292,0.0,1.1,69,0.00,,CLR,0.00,VWS V14.00,2013-08-04 16:33:00,
2013-08-04 09:35:00,69.8,59.2,30.00,WNW,292,0.0,1.1,69,0.00,,CLR,0.00,VWS V14.00,2013-08-04 16:35:00,
2013-08-04 09:36:00,69.8,59.2,30.00,WNW,292,0.0,1.1,69,0.00,,CLR,0.00,VWS V14.00,2013-08-04 16:36:00,
2013-08-04 09:37:00,69.8,59.2,30.00,WNW,292,0.0,1.1,69,0.00,,CLR,0.00,VWS V14.00,2013-08-04 16:37:00,
2013-08-04 09:38:00,69.8,59.2,30.00,WNW,292,0.0,1.1,69,0.00,,CLR,0.00,VWS V14.00,2013-08-04 16:38:00,
2013-08-04 09:40:00,70.0,59.3,30.00,NNW,338,0.0,1.1,69,0.00,,CLR,0.00,VWS V14.00,2013-08-04 16:40:00,
2013-08-04 09:41:00,70.3,59.7,30.00,NE,45,0.0,0.0,69,0.00,,CLR,0.00,VWS V14.00,2013-08-04 16:41:00,
2013-08-04 09:42:00,70.3,59.7,30.00,ENE,68,0.0,0.0,69,0.00,,CLR,0.00,VWS V14.00,2013-08-04 16:42:00,
2013-08-04 09:43:00,70.9,60.2,30.00,ENE,68,0.0,0.0,69,0.00,,CLR,0.00,VWS V14.00,2013-08-04 16:43:00,
2013-08-04 09:44:00,70.9,60.2,30.00,ENE,68,0.0,0.0,69,0.00,,CLR,0.00,VWS V14.00,2013-08-04 16:44:00,
2013-08-04 09:45:00,71.2,60.6,30.00,ENE,68,0.0,0.0,69,0.00,,CLR,0.00,VWS V14.00,2013-08-04 16:45:00,
2013-08-04 09:46:00,71.1,60.0,30.00,ENE,68,0.0,0.0,68,0.00,,CLR,0.00,VWS V14.00,2013-08-04 16:46:00,
2013-08-04 09:47:00,71.1,60.0,30.00,North,0,0.0,0.0,68,0.00,,SCT017,0.00,VWS V14.00,2013-08-04 16:47:00,
2013-08-04 09:48:00,71.1,60.0,30.00,North,0,0.0,0.0,68,0.00,,CLR,0.00,VWS V14.00,2013-08-04 16:48:00,
2013-08-04 09:49:00,71.1,60.0,30.00,NNW,338,1.3,1.3,68,0.00,,CLR,0.00,VWS V14.00,2013-08-04 16:49:00,
2013-08-04 09:50:00,71.1,60.0,30.00,NNW,338,0.0,1.3,68,0.00,,CLR,0.00,VWS V14.00,2013-08-04 16:50:00,
2013-08-04 09:51:00,71.1,60.0,30.00,NNW,338,0.0,1.3,68,0.00,,CLR,0.00,VWS V14.00,2013-08-04 16:51:00,
2013-08-04 09:52:00,71.1,60.0,30.00,NNW,338,0.0,1.3,68,0.00,,CLR,0.00,VWS V14.00,2013-08-04 16:52:00,
2013-08-04 09:53:00,71.4,60.3,30.00,NNW,338,0.0,1.3,68,0.00,,CLR,0.00,VWS V14.00,2013-08-04 16:53:00,
2013-08-04 09:54:00,71.4,60.3,30.00,NNW,338,0.0,1.3,68,0.00,,CLR,0.00,VWS V14.00,2013-08-04 16:54:00,
2013-08-04 09:55:00,71.6,60.5,30.00,NNE,22,0.0,1.3,68,0.00,,CLR,0.00,VWS V14.00,2013-08-04 16:55:00,
2013-08-04 09:56:00,71.6,60.5,30.00,NNE,22,0.0,1.3,68,0.00,,SCT017,0.00,VWS V14.00,2013-08-04 16:56:00,
2013-08-04 09:57:00,71.8,60.2,30.00,NNW,338,0.0,1.3,67,0.00,,CLR,0.00,VWS V14.00,2013-08-04 16:57:00,
2013-08-04 09:58:00,71.8,60.2,30.00,NNW,338,0.0,1.3,67,0.00,,CLR,0.00,VWS V14.00,2013-08-04 16:58:00,
2013-08-04 09:59:00,71.8,60.2,30.00,NNW,338,0.0,1.3,67,0.00,,CLR,0.00,VWS V14.00,2013-08-04 16:59:00,
2013-08-04 10:00:00,72.1,60.6,30.00,NNW,338,0.0,1.3,67,0.00,,CLR,0.00,VWS V14.00,2013-08-04 17:00:00,
2013-08-04 10:01:00,72.1,60.6,30.00,NE,45,0.0,1.3,67,0.00,,CLR,0.00,VWS V14.00,2013-08-04 17:01:00,
2013-08-04 10:02:00,72.1,60.6,30.00,NE,45,0.0,1.3,67,0.00,,CLR,0.00,VWS V14.00,2013-08-04 17:02:00,
2013-08-04 10:03:00,72.1,60.6,30.00,NE,45,0.0,1.3,67,0.00,,CLR,0.00,VWS V14.00,2013-08-04 17:03:00,
2013-08-04 10:04:00,72.1,60.2,30.00,NE,45,0.0,1.3,66,0.00,,SCT017,0.00,VWS V14.00,2013-08-04 17:04:00,
2013-08-04 10:05:00,72.1,60.2,30.00,NNW,338,0.0,1.3,66,0.00,,CLR,0.00,VWS V14.00,2013-08-04 17:05:00,
2013-08-04 10:06:00,72.1,60.2,30.00,NNW,338,0.0,1.3,66,0.00,,CLR,0.00,VWS V14.00,2013-08-04 17:06:00,
2013-08-04 10:07:00,72.0,60.4,30.00,NNW,338,0.0,1.3,67,0.00,,CLR,0.00,VWS V14.00,2013-08-04 17:07:00,
2013-08-04 10:08:00,72.0,60.4,30.00,NNW,338,0.0,0.9,67,0.00,,CLR,0.00,VWS V14.00,2013-08-04 17:08:00,
2013-08-04 10:09:00,72.0,60.0,30.00,NNW,338,0.0,0.9,66,0.00,,CLR,0.00,VWS V14.00,2013-08-04 17:09:00,
2013-08-04 10:10:00,72.0,60.0,30.00,NNW,338,0.0,0.9,66,0.00,,CLR,0.00,VWS V14.00,2013-08-04 17:10:00,
2013-08-04 10:11:00,72.0,60.4,30.00,NNW,338,0.0,0.9,67,0.00,,CLR,0.00,VWS V14.00,2013-08-04 17:11:00,
2013-08-04 10:13:00,72.1,60.2,30.00,NNW,338,0.0,0.9,66,0.00,,CLR,0.00,VWS V14.00,2013-08-04 17:13:00,
2013-08-04 10:14:00,72.1,60.2,30.00,NNW,338,0.0,0.9,66,0.00,,CLR,0.00,VWS V14.00,2013-08-04 17:14:00,
2013-08-04 10:15:00,72.0,60.0,30.00,NW,315,0.0,0.9,66,0.00,,CLR,0.00,VWS V14.00,2013-08-04 17:15:00,
2013-08-04 10:16:00,72.0,60.0,30.00,NW,315,0.0,0.9,66,0.00,,SCT017,0.00,VWS V14.00,2013-08-04 17:16:00,
2013-08-04 10:18:00,72.1,60.2,30.00,NW,315,0.0,0.9,66,0.00,,CLR,0.00,VWS V14.00,2013-08-04 17:18:00,
2013-08-04 10:19:00,72.1,60.2,30.00,NNE,22,0.0,0.9,66,0.00,,CLR,0.00,VWS V14.00,2013-08-04 17:19:00,
2013-08-04 10:20:00,72.1,60.2,30.00,NNE,22,0.0,0.9,66,0.00,,CLR,0.00,VWS V14.00,2013-08-04 17:20:00,
2013-08-04 10:22:00,72.0,60.0,30.00,NNE,22,0.0,0.9,66,0.00,,CLR,0.00,VWS V14.00,2013-08-04 17:22:00,
2013-08-04 10:23:00,72.0,60.0,30.00,NNW,338,0.0,0.0,66,0.00,,CLR,0.00,VWS V14.00,2013-08-04 17:23:00,
2013-08-04 10:24:00,72.1,60.2,30.00,NNW,338,0.0,0.0,66,0.00,,CLR,0.00,VWS V14.00,2013-08-04 17:24:00,
2013-08-04 10:25:00,72.1,60.2,30.00,NNW,338,0.0,0.0,66,0.00,,CLR,0.00,VWS V14.00,2013-08-04 17:25:00,
2013-08-04 10:27:00,72.1,60.2,30.00,NNW,338,0.0,0.0,66,0.00,,CLR,0.00,VWS V14.00,2013-08-04 17:27:00,
2013-08-04 10:28:00,72.1,60.2,30.00,NNW,338,0.0,0.0,66,0.00,,CLR,0.00,VWS V14.00,2013-08-04 17:28:00,
2013-08-04 10:29:00,72.1,60.2,30.00,NNW,338,0.0,0.0,66,0.00,,CLR,0.00,VWS V14.00,2013-08-04 17:29:00,
2013-08-04 10:31:00,72.1,60.2,30.00,NE,45,0.9,0.9,66,0.00,,CLR,0.00,VWS V14.00,2013-08-04 17:31:00,
2013-08-04 10:32:00,72.1,60.2,30.00,West,270,1.3,1.3,66,0.00,,CLR,0.00,VWS V14.00,2013-08-04 17:32:00,
2013-08-04 10:33:00,72.1,60.2,30.00,West,270,1.3,1.3,66,0.00,,CLR,0.00,VWS V14.00,2013-08-04 17:33:00,
2013-08-04 10:34:00,72.0,60.0,30.00,NNW,338,1.1,1.6,66,0.00,,CLR,0.00,VWS V14.00,2013-08-04 17:34:00,
2013-08-04 10:36:00,72.0,60.0,30.00,East,90,0.0,1.6,66,0.00,,CLR,0.00,VWS V14.00,2013-08-04 17:36:00,
2013-08-04 10:37:00,72.0,60.0,30.00,ESE,112,1.1,1.6,66,0.00,,CLR,0.00,VWS V14.00,2013-08-04 17:37:00,
2013-08-04 10:38:00,72.0,60.0,30.00,NNW,338,0.9,1.6,66,0.00,,CLR,0.00,VWS V14.00,2013-08-04 17:38:00,
2013-08-04 10:39:00,72.0,60.0,30.00,NNW,338,0.9,1.6,66,0.00,,CLR,0.00,VWS V14.00,2013-08-04 17:39:00,
2013-08-04 10:42:00,72.0,60.0,30.00,NNW,338,3.4,3.4,66,0.00,,CLR,0.00,VWS V14.00,2013-08-04 17:42:00,
2013-08-04 10:43:00,72.0,60.0,30.00,NNE,22,1.3,3.4,66,0.00,,CLR,0.00,VWS V14.00,2013-08-04 17:43:00,
2013-08-04 10:44:00,72.0,60.0,30.00,ENE,68,0.0,3.4,66,0.00,,CLR,0.00,VWS V14.00,2013-08-04 17:44:00,
2013-08-04 10:47:00,72.1,60.2,30.00,NNE,22,0.0,3.4,66,0.00,,CLR,0.00,VWS V14.00,2013-08-04 17:47:00,
2013-08-04 10:48:00,72.1,60.2,30.00,WNW,292,0.0,3.4,66,0.00,,CLR,0.00,VWS V14.00,2013-08-04 17:48:00,
2013-08-04 10:49:00,72.1,60.2,30.00,WNW,292,0.0,3.4,66,0.00,,CLR,0.00,VWS V14.00,2013-08-04 17:49:00,
2013-08-04 10:52:00,72.0,60.0,30.00,WNW,292,0.0,3.4,66,0.00,,CLR,0.00,VWS V14.00,2013-08-04 17:52:00,
2013-08-04 10:53:00,72.0,60.0,30.00,WNW,292,0.0,3.4,66,0.00,,CLR,0.00,VWS V14.00,2013-08-04 17:53:00,
2013-08-04 10:54:00,72.0,60.0,30.00,WNW,292,0.0,3.4,66,0.00,,CLR,0.00,VWS V14.00,2013-08-04 17:54:00,
2013-08-04 10:57:00,72.1,60.2,30.00,ESE,112,0.0,3.4,66,0.00,,CLR,0.00,VWS V14.00,2013-08-04 17:57:00,
2013-08-04 10:58:00,72.1,60.2,30.00,ESE,112,0.0,3.4,66,0.00,,CLR,0.00,VWS V14.00,2013-08-04 17:58:00,
2013-08-04 10:59:00,72.0,60.0,30.00,WNW,292,0.9,1.3,66,0.00,,CLR,0.00,VWS V14.00,2013-08-04 17:59:00,
2013-08-04 11:02:00,72.1,60.2,30.00,WNW,292,0.0,2.2,66,0.00,,CLR,0.00,VWS V14.00,2013-08-04 18:02:00,
2013-08-04 11:03:00,72.1,60.2,30.00,East,90,0.0,2.2,66,0.00,,CLR,0.00,VWS V14.00,2013-08-04 18:03:00,
2013-08-04 11:04:00,72.1,60.2,30.00,NNW,338,0.9,2.2,66,0.00,,CLR,0.00,VWS V14.00,2013-08-04 18:04:00,
2013-08-04 11:07:00,72.0,60.0,30.00,West,270,0.0,2.2,66,0.00,,CLR,0.00,VWS V14.00,2013-08-04 18:07:00,
2013-08-04 11:08:00,72.0,60.0,30.00,West,270,0.0,2.2,66,0.00,,CLR,0.00,VWS V14.00,2013-08-04 18:08:00,
2013-08-04 11:09:00,71.8,59.8,30.00,West,270,0.0,2.2,66,0.00,,CLR,0.00,VWS V14.00,2013-08-04 18:09:00,
2013-08-04 11:10:00,71.8,59.8,30.00,WNW,292,1.6,2.2,66,0.00,,CLR,0.00,VWS V14.00,2013-08-04 18:10:00,
2013-08-04 11:12:00,72.1,60.2,30.00,NNW,338,1.1,2.2,66,0.00,,CLR,0.00,VWS V14.00,2013-08-04 18:12:00,
2013-08-04 11:13:00,72.1,60.2,30.00,NNW,338,1.1,2.2,66,0.00,,CLR,0.00,VWS V14.00,2013-08-04 18:13:00,
2013-08-04 11:14:00,72.1,60.2,30.00,NNW,338,0.0,2.2,66,0.00,,CLR,0.00,VWS V14.00,2013-08-04 18:14:00,
2013-08-04 11:15:00,72.3,60.3,30.00,WNW,292,2.9,2.9,66,0.00,,CLR,0.00,VWS V14.00,2013-08-04 18:15:00,
2013-08-04 11:17:00,72.5,60.5,30.00,East,90,0.0,2.9,66,0.00,,CLR,0.00,VWS V14.00,2013-08-04 18:17:00,
2013-08-04 11:18:00,72.5,60.1,30.00,East,90,0.0,2.9,65,0.00,,CLR,0.00,VWS V14.00,2013-08-04 18:18:00,
2013-08-04 11:19:00,72.5,60.1,30.00,ESE,112,1.3,2.9,65,0.00,,CLR,0.00,VWS V14.00,2013-08-04 18:19:00,
2013-08-04 11:20:00,72.5,60.5,30.00,SSW,202,0.9,2.9,66,0.00,,CLR,0.00,VWS V14.00,2013-08-04 18:20:00,
2013-08-04 11:22:00,72.5,60.5,30.00,NNW,338,1.6,2.9,66,0.00,,CLR,0.00,VWS V14.00,2013-08-04 18:22:00,
2013-08-04 11:23:00,72.5,60.5,30.00,NNW,338,1.6,2.9,66,0.00,,CLR,0.00,VWS V14.00,2013-08-04 18:23:00,
2013-08-04 11:24:00,72.9,60.8,30.00,NNW,338,1.6,2.9,66,0.00,,CLR,0.00,VWS V14.00,2013-08-04 18:24:00,
2013-08-04 11:25:00,72.7,60.7,30.00,NW,315,1.1,2.9,66,0.00,,CLR,0.00,VWS V14.00,2013-08-04 18:25:00,
2013-08-04 11:27:00,72.7,60.7,30.00,NNW,338,0.0,2.9,66,0.00,,CLR,0.00,VWS V14.00,2013-08-04 18:27:00,
2013-08-04 11:28:00,72.7,60.7,30.00,NNW,338,0.0,2.9,66,0.00,,CLR,0.00,VWS V14.00,2013-08-04 18:28:00,
2013-08-04 11:29:00,72.9,60.4,30.00,NNW,338,0.0,2.9,65,0.00,,CLR,0.00,VWS V14.00,2013-08-04 18:29:00,
2013-08-04 11:30:00,72.9,60.4,30.00,NE,45,1.3,2.9,65,0.00,,CLR,0.00,VWS V14.00,2013-08-04 18:30:00,
2013-08-04 11:32:00,73.0,61.0,30.00,WNW,292,0.9,1.6,66,0.00,,CLR,0.00,VWS V14.00,2013-08-04 18:32:00,
2013-08-04 11:33:00,73.0,61.0,30.00,WNW,292,0.9,1.6,66,0.00,,CLR,0.00,VWS V14.00,2013-08-04 18:33:00,
2013-08-04 11:34:00,72.9,60.4,30.00,NNE,22,0.0,1.6,65,0.00,,CLR,0.00,VWS V14.00,2013-08-04 18:34:00,
2013-08-04 11:35:00,72.9,60.4,30.00,East,90,0.0,1.6,65,0.00,,CLR,0.00,VWS V14.00,2013-08-04 18:35:00,
2013-08-04 11:38:00,72.9,60.4,30.00,WNW,292,0.0,1.6,65,0.00,,CLR,0.00,VWS V14.00,2013-08-04 18:38:00,
2013-08-04 11:39:00,72.9,60.4,30.00,West,270,0.0,1.6,65,0.00,,CLR,0.00,VWS V14.00,2013-08-04 18:39:00,
2013-08-04 11:40:00,72.9,60.4,30.00,ESE,112,1.3,1.6,65,0.00,,CLR,0.00,VWS V14.00,2013-08-04 18:40:00,
2013-08-04 11:43:00,73.4,60.9,30.00,NNW,338,0.0,1.6,65,0.00,,CLR,0.00,VWS V14.00,2013-08-04 18:43:00,
2013-08-04 11:44:00,73.4,60.9,30.00,NNE,22,0.0,1.6,65,0.00,,CLR,0.00,VWS V14.00,2013-08-04 18:44:00,
2013-08-04 11:45:00,73.4,60.9,29.97,WNW,292,0.9,1.6,65,0.00,,CLR,0.00,VWS V14.00,2013-08-04 18:45:00,
2013-08-04 11:48:00,73.2,60.8,29.97,WSW,248,0.9,1.6,65,0.00,,CLR,0.00,VWS V14.00,2013-08-04 18:48:00,
2013-08-04 11:49:00,73.2,60.8,29.97,WSW,248,0.9,1.6,65,0.00,,CLR,0.00,VWS V14.00,2013-08-04 18:49:00,
2013-08-04 11:50:00,73.8,61.3,29.97,WSW,248,0.9,1.6,65,0.00,,CLR,0.00,VWS V14.00,2013-08-04 18:50:00,
2013-08-04 11:53:00,73.6,61.1,29.97,WNW,292,0.0,1.6,65,0.00,,CLR,0.00,VWS V14.00,2013-08-04 18:53:00,
2013-08-04 11:54:00,73.6,61.1,29.97,NNE,22,0.0,1.6,65,0.00,,CLR,0.00,VWS V14.00,2013-08-04 18:54:00,
2013-08-04 11:55:00,73.6,61.1,29.97,SE,135,2.2,2.2,65,0.00,,CLR,0.00,VWS V14.00,2013-08-04 18:55:00,
2013-08-04 11:58:00,73.6,61.1,29.97,NNW,338,1.3,2.2,65,0.00,,CLR,0.00,VWS V14.00,2013-08-04 18:58:00,
2013-08-04 11:59:00,73.8,61.3,29.97,NNW,338,1.3,2.2,65,0.00,,CLR,0.00,VWS V14.00,2013-08-04 18:59:00,
2013-08-04 12:00:00,73.8,60.8,29.97,WNW,292,0.0,2.2,64,0.00,,CLR,0.00,VWS V14.00,2013-08-04 19:00:00,
2013-08-04 12:03:00,73.9,61.4,29.97,WSW,248,0.0,2.2,65,0.00,,CLR,0.00,VWS V14.00,2013-08-04 19:03:00,
2013-08-04 12:04:00,74.1,61.6,29.97,West,270,0.0,2.2,65,0.00,,CLR,0.00,VWS V14.00,2013-08-04 19:04:00,
2013-08-04 12:06:00,74.1,61.2,29.97,ENE,68,0.0,2.2,64,0.00,,CLR,0.00,VWS V14.00,2013-08-04 19:06:00,
2013-08-04 12:08:00,74.1,61.6,29.97,NW,315,0.0,2.2,65,0.00,,CLR,0.00,VWS V14.00,2013-08-04 19:08:00,
2013-08-04 12:09:00,74.1,61.2,29.97,NW,315,0.0,2.2,64,0.00,,CLR,0.00,VWS V14.00,2013-08-04 19:09:00,
2013-08-04 12:11:00,74.1,61.2,29.97,East,90,0.0,2.2,64,0.00,,CLR,0.00,VWS V14.00,2013-08-04 19:11:00,
2013-08-04 12:13:00,74.1,61.6,29.97,WNW,292,0.0,2.2,65,0.00,,CLR,0.00,VWS V14.00,2013-08-04 19:13:00,
2013-08-04 12:14:00,74.1,61.6,29.97,East,90,0.0,2.2,65,0.00,,CLR,0.00,VWS V14.00,2013-08-04 19:14:00,
2013-08-04 12:16:00,74.3,61.8,29.97,SW,225,1.3,2.2,65,0.00,,CLR,0.00,VWS V14.00,2013-08-04 19:16:00,
2013-08-04 12:18:00,74.3,61.8,29.97,WNW,292,0.0,2.0,65,0.00,,CLR,0.00,VWS V14.00,2013-08-04 19:18:00,
2013-08-04 12:19:00,74.3,61.8,29.97,WNW,292,0.0,2.0,65,0.00,,CLR,0.00,VWS V14.00,2013-08-04 19:19:00,
2013-08-04 12:21:00,74.5,61.5,29.97,West,270,2.7,2.7,64,0.00,,CLR,0.00,VWS V14.00,2013-08-04 19:21:00,
2013-08-04 12:23:00,74.5,62.0,29.97,SSW,202,0.0,2.7,65,0.00,,CLR,0.00,VWS V14.00,2013-08-04 19:23:00,
2013-08-04 12:24:00,74.5,62.0,29.97,SSW,202,0.0,2.7,65,0.00,,CLR,0.00,VWS V14.00,2013-08-04 19:24:00,
2013-08-04 12:26:00,74.7,61.7,29.97,WNW,292,0.0,2.7,64,0.00,,CLR,0.00,VWS V14.00,2013-08-04 19:26:00,
2013-08-04 12:28:00,74.5,61.5,29.97,ENE,68,2.7,2.7,64,0.00,,CLR,0.00,VWS V14.00,2013-08-04 19:28:00,
2013-08-04 12:29:00,74.5,61.5,29.97,West,270,0.0,2.7,64,0.00,,CLR,0.00,VWS V14.00,2013-08-04 19:29:00,
2013-08-04 12:31:00,74.5,61.5,29.97,WNW,292,0.0,2.7,64,0.00,,CLR,0.00,VWS V14.00,2013-08-04 19:31:00,
2013-08-04 12:33:00,74.7,61.7,29.97,SW,225,1.3,2.7,64,0.00,,CLR,0.00,VWS V14.00,2013-08-04 19:33:00,
2013-08-04 12:34:00,74.7,61.7,29.97,SW,225,1.3,2.7,64,0.00,,CLR,0.00,VWS V14.00,2013-08-04 19:34:00,
2013-08-04 12:35:00,74.7,61.7,29.97,WNW,292,1.6,2.7,64,0.00,,CLR,0.00,VWS V14.00,2013-08-04 19:35:00,
2013-08-04 12:37:00,74.8,61.9,29.97,WNW,292,0.0,2.7,64,0.00,,CLR,0.00,VWS V14.00,2013-08-04 19:37:00,
2013-08-04 12:38:00,75.0,62.0,29.97,NW,315,0.9,2.7,64,0.00,,CLR,0.00,VWS V14.00,2013-08-04 19:38:00,
2013-08-04 12:39:00,75.2,62.2,29.97,NW,315,0.9,2.7,64,0.00,,CLR,0.00,VWS V14.00,2013-08-04 19:39:00,
2013-08-04 12:40:00,75.2,62.2,29.97,NW,315,0.9,2.7,64,0.00,,CLR,0.00,VWS V14.00,2013-08-04 19:40:00,
2013-08-04 12:42:00,75.2,61.8,29.97,NW,315,0.0,2.9,63,0.00,,CLR,0.00,VWS V14.00,2013-08-04 19:42:00,
2013-08-04 12:43:00,75.2,62.2,29.97,NNE,22,0.0,2.9,64,0.00,,CLR,0.00,VWS V14.00,2013-08-04 19:43:00,
2013-08-04 12:44:00,75.2,62.2,29.97,NNE,22,0.0,2.9,64,0.00,,CLR,0.00,VWS V14.00,2013-08-04 19:44:00,
2013-08-04 12:45:00,75.2,61.8,29.97,WNW,292,1.1,2.9,63,0.00,,CLR,0.00,VWS V14.00,2013-08-04 19:45:00,
2013-08-04 12:47:00,75.4,62.4,29.97,NNW,338,1.1,2.9,64,0.00,,CLR,0.00,VWS V14.00,2013-08-04 19:47:00,
2013-08-04 12:48:00,75.4,62.4,29.97,NE,45,0.0,2.9,64,0.00,,CLR,0.00,VWS V14.00,2013-08-04 19:48:00,
2013-08-04 12:49:00,75.4,62.4,29.97,NE,45,0.0,2.9,64,0.00,,CLR,0.00,VWS V14.00,2013-08-04 19:49:00,
2013-08-04 12:50:00,75.6,62.1,29.97,NE,45,0.0,2.9,63,0.00,,CLR,0.00,VWS V14.00,2013-08-04 19:50:00,
2013-08-04 12:53:00,75.6,62.1,29.97,NNE,22,0.0,2.9,63,0.00,,CLR,0.00,VWS V14.00,2013-08-04 19:53:00,
2013-08-04 12:54:00,75.7,62.3,29.97,NNW,338,0.0,2.9,63,0.00,,CLR,0.00,VWS V14.00,2013-08-04 19:54:00,
2013-08-04 12:55:00,75.7,62.3,29.97,NNW,338,0.0,2.9,63,0.00,,CLR,0.00,VWS V14.00,2013-08-04 19:55:00,
2013-08-04 12:58:00,75.9,62.4,29.97,WSW,248,0.0,1.1,63,0.00,,CLR,0.00,VWS V14.00,2013-08-04 19:58:00,
2013-08-04 12:59:00,75.7,62.3,29.97,WSW,248,0.0,1.1,63,0.00,,CLR,0.00,VWS V14.00,2013-08-04 19:59:00,
2013-08-04 13:00:00,75.7,61.8,29.97,WSW,248,0.0,1.1,62,0.00,,CLR,0.00,VWS V14.00,2013-08-04 20:00:00,
2013-08-04 13:01:00,75.7,61.8,29.97,WSW,248,0.0,1.1,62,0.00,,CLR,0.00,VWS V14.00,2013-08-04 20:01:00,
2013-08-04 13:03:00,75.7,62.3,29.97,NW,315,0.0,1.1,63,0.00,,CLR,0.00,VWS V14.00,2013-08-04 20:03:00,
2013-08-04 13:04:00,75.9,62.4,29.97,WNW,292,1.3,1.3,63,0.00,,CLR,0.00,VWS V14.00,2013-08-04 20:04:00,
2013-08-04 13:05:00,75.9,62.4,29.97,NE,45,0.0,1.3,63,0.00,,CLR,0.00,VWS V14.00,2013-08-04 20:05:00,
2013-08-04 13:06:00,76.1,62.6,29.97,NE,45,0.0,1.3,63,0.00,,CLR,0.00,VWS V14.00,2013-08-04 20:06:00,
2013-08-04 13:08:00,76.3,62.8,29.97,NNW,338,1.3,1.3,63,0.00,,CLR,0.00,VWS V14.00,2013-08-04 20:08:00,
2013-08-04 13:09:00,76.3,62.8,29.97,WNW,292,1.6,1.6,63,0.00,,CLR,0.00,VWS V14.00,2013-08-04 20:09:00,
2013-08-04 13:10:00,76.3,62.8,29.97,WNW,292,0.9,1.6,63,0.00,,CLR,0.00,VWS V14.00,2013-08-04 20:10:00,
2013-08-04 13:11:00,76.3,62.8,29.97,WNW,292,0.9,1.6,63,0.00,,CLR,0.00,VWS V14.00,2013-08-04 20:11:00,
2013-08-04 13:13:00,76.5,62.9,29.97,WNW,292,0.0,1.6,63,0.00,,CLR,0.00,VWS V14.00,2013-08-04 20:13:00,
2013-08-04 13:14:00,76.5,62.9,29.97,NNW,338,0.9,1.6,63,0.00,,CLR,0.00,VWS V14.00,2013-08-04 20:14:00,
2013-08-04 13:15:00,76.6,63.1,29.97,NNW,338,0.9,1.6,63,0.00,,CLR,0.00,VWS V14.00,2013-08-04 20:15:00,
2013-08-04 13:16:00,76.6,63.1,29.97,NNW,338,0.9,1.6,63,0.00,,CLR,0.00,VWS V14.00,2013-08-04 20:16:00,
2013-08-04 13:18:00,76.6,63.1,29.97,NW,315,0.0,1.6,63,0.00,,CLR,0.00,VWS V14.00,2013-08-04 20:18:00,
2013-08-04 13:19:00,76.6,63.1,29.97,NW,315,0.0,1.6,63,0.00,,CLR,0.00,VWS V14.00,2013-08-04 20:19:00,
2013-08-04 13:20:00,76.8,63.3,29.97,NW,315,1.1,1.6,63,0.00,,CLR,0.00,VWS V14.00,2013-08-04 20:20:00,
2013-08-04 13:21:00,76.8,63.3,29.97,NW,315,0.0,1.6,63,0.00,,CLR,0.00,VWS V14.00,2013-08-04 20:21:00,
2013-08-04 13:23:00,77.0,63.0,29.97,WNW,292,0.0,1.6,62,0.00,,CLR,0.00,VWS V14.00,2013-08-04 20:23:00,
2013-08-04 13:24:00,76.8,62.8,29.97,ENE,68,0.0,1.6,62,0.00,,CLR,0.00,VWS V14.00,2013-08-04 20:24:00,
2013-08-04 13:25:00,76.6,62.7,29.97,East,90,0.0,1.6,62,0.00,,CLR,0.00,VWS V14.00,2013-08-04 20:25:00,
2013-08-04 13:26:00,76.6,62.7,29.97,NE,45,0.0,1.6,62,0.00,,CLR,0.00,VWS V14.00,2013-08-04 20:26:00,
2013-08-04 13:28:00,76.8,63.3,29.97,West,270,2.0,2.0,63,0.00,,CLR,0.00,VWS V14.00,2013-08-04 20:28:00,
2013-08-04 13:29:00,76.8,62.8,29.97,SSW,202,0.9,2.0,62,0.00,,CLR,0.00,VWS V14.00,2013-08-04 20:29:00,
2013-08-04 13:30:00,76.8,63.3,29.94,ESE,112,0.0,2.0,63,0.00,,CLR,0.00,VWS V14.00,2013-08-04 20:30:00,
2013-08-04 13:32:00,76.8,63.3,29.94,NE,45,0.9,2.0,63,0.00,,CLR,0.00,VWS V14.00,2013-08-04 20:32:00,
2013-08-04 13:33:00,77.0,63.0,29.94,WNW,292,0.9,2.0,62,0.00,,CLR,0.00,VWS V14.00,2013-08-04 20:33:00,
2013-08-04 13:34:00,77.2,63.2,29.94,ENE,68,1.6,2.0,62,0.00,,CLR,0.00,VWS V14.00,2013-08-04 20:34:00,
2013-08-04 13:35:00,77.0,63.0,29.94,East,90,0.0,2.0,62,0.00,,CLR,0.00,VWS V14.00,2013-08-04 20:35:00,
2013-08-04 13:37:00,77.0,63.0,29.94,NE,45,0.0,2.0,62,0.00,,CLR,0.00,VWS V14.00,2013-08-04 20:37:00,
2013-08-04 13:38:00,77.0,63.0,29.94,ESE,112,0.0,2.0,62,0.00,,CLR,0.00,VWS V14.00,2013-08-04 20:38:00,
2013-08-04 13:39:00,77.0,63.0,29.94,NNW,338,0.0,2.0,62,0.00,,CLR,0.00,VWS V14.00,2013-08-04 20:39:00,
2013-08-04 13:40:00,77.0,63.0,29.94,WNW,292,0.0,2.0,62,0.00,,CLR,0.00,VWS V14.00,2013-08-04 20:40:00,
2013-08-04 13:42:00,77.2,63.2,29.94,WNW,292,0.0,2.0,62,0.00,,CLR,0.00,VWS V14.00,2013-08-04 20:42:00,
2013-08-04 13:43:00,77.4,63.3,29.94,NNW,338,1.1,1.6,62,0.00,,CLR,0.00,VWS V14.00,2013-08-04 20:43:00,
2013-08-04 13:44:00,77.4,63.3,29.94,NNW,338,1.1,1.6,62,0.00,,CLR,0.00,VWS V14.00,2013-08-04 20:44:00,
2013-08-04 13:45:00,77.4,63.3,29.94,NNE,22,1.1,1.6,62,0.00,,CLR,0.00,VWS V14.00,2013-08-04 20:45:00,
2013-08-04 13:47:00,77.5,63.5,29.94,NNE,22,1.1,1.1,62,0.00,,CLR,0.00,VWS V14.00,2013-08-04 20:47:00,
2013-08-04 13:48:00,77.5,63.5,29.94,ENE,68,0.9,1.1,62,0.00,,CLR,0.00,VWS V14.00,2013-08-04 20:48:00,
2013-08-04 13:49:00,77.5,63.5,29.94,NNW,338,2.0,2.0,62,0.00,,CLR,0.00,VWS V14.00,2013-08-04 20:49:00,
2013-08-04 13:51:00,77.9,63.8,29.94,NNW,338,2.0,2.0,62,0.00,,CLR,0.00,VWS V14.00,2013-08-04 20:51:00,
2013-08-04 13:52:00,77.9,63.8,29.94,WNW,292,2.5,2.5,62,0.00,,CLR,0.00,VWS V14.00,2013-08-04 20:52:00,
2013-08-04 13:53:00,77.9,63.4,29.94,NW,315,0.0,2.5,61,0.00,,CLR,0.00,VWS V14.00,2013-08-04 20:53:00,
2013-08-04 13:54:00,77.9,63.4,29.94,NW,315,0.0,2.5,61,0.00,,CLR,0.00,VWS V14.00,2013-08-04 20:54:00,
2013-08-04 13:56:00,78.1,63.5,29.94,NW,315,0.0,2.5,61,0.00,,CLR,0.00,VWS V14.00,2013-08-04 20:56:00,
2013-08-04 13:57:00,78.1,63.5,29.94,NNW,338,0.0,2.5,61,0.00,,CLR,0.00,VWS V14.00,2013-08-04 20:57:00,
2013-08-04 13:58:00,78.3,63.7,29.94,NNW,338,1.1,2.5,61,0.00,,CLR,0.00,VWS V14.00,2013-08-04 20:58:00,
2013-08-04 13:59:00,78.3,63.7,29.94,NNW,338,0.0,2.5,61,0.00,,CLR,0.00,VWS V14.00,2013-08-04 20:59:00,
2013-08-04 14:01:00,78.3,63.7,29.94,NNE,22,0.0,2.5,61,0.00,,CLR,0.00,VWS V14.00,2013-08-04 21:01:00,
2013-08-04 14:02:00,78.3,63.7,29.94,NNE,22,0.0,2.5,61,0.00,,CLR,0.00,VWS V14.00,2013-08-04 21:02:00,
2013-08-04 14:04:00,78.3,63.7,29.94,West,270,0.0,2.5,61,0.00,,CLR,0.00,VWS V14.00,2013-08-04 21:04:00,
2013-08-04 14:06:00,78.4,63.4,29.94,SE,135,2.0,2.0,60,0.00,,CLR,0.00,VWS V14.00,2013-08-04 21:06:00,
2013-08-04 14:07:00,78.4,63.4,29.94,WNW,292,2.2,2.2,60,0.00,,CLR,0.00,VWS V14.00,2013-08-04 21:07:00,
2013-08-04 14:09:00,78.4,63.4,29.94,NNE,22,0.9,2.2,60,0.00,,CLR,0.00,VWS V14.00,2013-08-04 21:09:00,
2013-08-04 14:11:00,78.4,63.4,29.94,NW,315,1.6,2.2,60,0.00,,CLR,0.00,VWS V14.00,2013-08-04 21:11:00,
2013-08-04 14:12:00,78.6,63.6,29.94,NNW,338,0.9,2.2,60,0.00,,CLR,0.00,VWS V14.00,2013-08-04 21:12:00,
2013-08-04 14:14:00,78.8,63.8,29.94,NW,315,0.0,2.2,60,0.00,,CLR,0.00,VWS V14.00,2013-08-04 21:14:00,
2013-08-04 14:16:00,79.0,63.9,29.94,NW,315,0.9,2.2,60,0.00,,CLR,0.00,VWS V14.00,2013-08-04 21:16:00,
2013-08-04 14:17:00,79.0,63.9,29.94,NNW,338,1.1,2.2,60,0.00,,CLR,0.00,VWS V14.00,2013-08-04 21:17:00,
2013-08-04 14:19:00,78.8,63.8,29.94,NW,315,1.3,2.2,60,0.00,,CLR,0.00,VWS V14.00,2013-08-04 21:19:00,
2013-08-04 14:20:00,79.0,63.9,29.94,NW,315,1.1,1.6,60,0.00,,CLR,0.00,VWS V14.00,2013-08-04 21:20:00,
2013-08-04 14:21:00,79.0,63.9,29.94,South,180,2.5,2.5,60,0.00,,CLR,0.00,VWS V14.00,2013-08-04 21:21:00,
2013-08-04 14:23:00,79.0,63.9,29.94,NNW,338,0.0,2.5,60,0.00,,CLR,0.00,VWS V14.00,2013-08-04 21:23:00,
2013-08-04 14:24:00,79.0,63.9,29.94,NNW,338,0.9,2.5,60,0.00,,CLR,0.00,VWS V14.00,2013-08-04 21:24:00,
2013-08-04 14:25:00,79.0,63.9,29.94,NNW,338,0.0,2.5,60,0.00,,CLR,0.00,VWS V14.00,2013-08-04 21:25:00,
2013-08-04 14:26:00,79.2,64.1,29.94,NNW,338,0.0,2.5,60,0.00,,CLR,0.00,VWS V14.00,2013-08-04 21:26:00,
2013-08-04 14:28:00,79.3,64.3,29.94,ENE,68,0.0,2.5,60,0.00,,CLR,0.00,VWS V14.00,2013-08-04 21:28:00,
2013-08-04 14:29:00,79.3,63.8,29.94,NNE,22,0.9,0.9,59,0.00,,CLR,0.00,VWS V14.00,2013-08-04 21:29:00,
2013-08-04 14:30:00,79.3,63.8,29.94,NW,315,1.6,1.6,59,0.00,,CLR,0.00,VWS V14.00,2013-08-04 21:30:00,
2013-08-04 14:31:00,79.3,63.8,29.94,ENE,68,1.3,1.6,59,0.00,,CLR,0.00,VWS V14.00,2013-08-04 21:31:00,
2013-08-04 14:33:00,79.3,63.8,29.94,North,0,0.0,1.6,59,0.00,,CLR,0.00,VWS V14.00,2013-08-04 21:33:00,
2013-08-04 14:34:00,79.3,64.3,29.94,North,0,0.9,1.6,60,0.00,,CLR,0.00,VWS V14.00,2013-08-04 21:34:00,
2013-08-04 14:35:00,79.3,64.3,29.94,North,0,0.9,1.6,60,0.00,,CLR,0.00,VWS V14.00,2013-08-04 21:35:00,
2013-08-04 14:36:00,79.5,64.0,29.94,WSW,248,1.6,1.6,59,0.00,,CLR,0.00,VWS V14.00,2013-08-04 21:36:00,
2013-08-04 14:38:00,79.5,64.0,29.94,WSW,248,0.0,1.6,59,0.00,,CLR,0.00,VWS V14.00,2013-08-04 21:38:00,
2013-08-04 14:39:00,79.5,64.0,29.94,WNW,292,0.0,1.6,59,0.00,,CLR,0.00,VWS V14.00,2013-08-04 21:39:00,
2013-08-04 14:40:00,79.7,64.1,29.94,WNW,292,0.9,1.6,59,0.00,,CLR,0.00,VWS V14.00,2013-08-04 21:40:00,
2013-08-04 14:41:00,79.7,64.1,29.94,WNW,292,0.9,1.6,59,0.00,,CLR,0.00,VWS V14.00,2013-08-04 21:41:00,
2013-08-04 14:43:00,79.7,64.1,29.94,WNW,292,0.0,0.9,59,0.00,,CLR,0.00,VWS V14.00,2013-08-04 21:43:00,
2013-08-04 14:44:00,79.7,64.1,29.94,WNW,292,0.0,0.9,59,0.00,,CLR,0.00,VWS V14.00,2013-08-04 21:44:00,
2013-08-04 14:45:00,79.7,64.1,29.91,SE,135,0.9,0.9,59,0.00,,CLR,0.00,VWS V14.00,2013-08-04 21:45:00,
2013-08-04 14:46:00,79.7,64.1,29.91,North,0,0.0,0.9,59,0.00,,CLR,0.00,VWS V14.00,2013-08-04 21:46:00,
2013-08-04 14:48:00,79.7,64.1,29.91,NE,45,0.0,0.9,59,0.00,,CLR,0.00,VWS V14.00,2013-08-04 21:48:00,
2013-08-04 14:49:00,79.7,64.1,29.91,NNW,338,0.0,0.9,59,0.00,,CLR,0.00,VWS V14.00,2013-08-04 21:49:00,
2013-08-04 14:50:00,79.9,64.3,29.91,NNW,338,0.0,0.9,59,0.00,,CLR,0.00,VWS V14.00,2013-08-04 21:50:00,
2013-08-04 14:51:00,79.9,64.3,29.91,ENE,68,0.9,0.9,59,0.00,,CLR,0.00,VWS V14.00,2013-08-04 21:51:00,
2013-08-04 14:54:00,79.9,64.3,29.91,NE,45,0.0,0.9,59,0.00,,CLR,0.00,VWS V14.00,2013-08-04 21:54:00,
2013-08-04 14:55:00,79.9,64.3,29.91,East,90,0.0,0.9,59,0.00,,CLR,0.00,VWS V14.00,2013-08-04 21:55:00,
2013-08-04 14:56:00,79.9,64.3,29.91,North,0,0.0,0.9,59,0.00,,CLR,0.00,VWS V14.00,2013-08-04 21:56:00,
2013-08-04 14:59:00,79.9,64.3,29.91,NNE,22,0.0,0.9,59,0.00,,CLR,0.00,VWS V14.00,2013-08-04 21:59:00,
2013-08-04 15:00:00,80.1,64.5,29.91,NNW,338,0.0,0.9,59,0.00,,CLR,0.00,VWS V14.00,2013-08-04 22:00:00,
2013-08-04 15:02:00,80.1,64.5,29.91,NNW,338,0.0,0.9,59,0.00,,CLR,0.00,VWS V14.00,2013-08-04 22:02:00,
2013-08-04 15:04:00,80.2,64.6,29.91,NW,315,0.0,0.9,59,0.00,,CLR,0.00,VWS V14.00,2013-08-04 22:04:00,
2013-08-04 15:05:00,80.2,64.6,29.91,North,0,0.0,0.9,59,0.00,,CLR,0.00,VWS V14.00,2013-08-04 22:05:00,
2013-08-04 15:07:00,80.2,64.6,29.91,NE,45,0.0,0.9,59,0.00,,CLR,0.00,VWS V14.00,2013-08-04 22:07:00,
2013-08-04 15:09:00,80.2,64.6,29.91,NW,315,0.0,1.3,59,0.00,,CLR,0.00,VWS V14.00,2013-08-04 22:09:00,
2013-08-04 15:10:00,80.4,64.3,29.91,East,90,0.0,1.3,58,0.00,,CLR,0.00,VWS V14.00,2013-08-04 22:10:00,
2013-08-04 15:12:00,80.6,64.5,29.91,NNW,338,0.0,1.3,58,0.00,,CLR,0.00,VWS V14.00,2013-08-04 22:12:00,
2013-08-04 15:14:00,80.6,64.5,29.91,West,270,0.0,1.3,58,0.00,,CLR,0.00,VWS V14.00,2013-08-04 22:14:00,
2013-08-04 15:15:00,80.4,64.3,29.91,West,270,0.0,1.3,58,0.00,,CLR,0.00,VWS V14.00,2013-08-04 22:15:00,
2013-08-04 15:17:00,80.6,64.5,29.91,North,0,0.0,1.3,58,0.00,,CLR,0.00,VWS V14.00,2013-08-04 22:17:00,
2013-08-04 15:19:00,80.6,64.0,29.91,WNW,292,1.1,1.3,57,0.00,,CLR,0.00,VWS V14.00,2013-08-04 22:19:00,
2013-08-04 15:20:00,80.6,64.0,29.91,ENE,68,0.0,1.3,57,0.00,,CLR,0.00,VWS V14.00,2013-08-04 22:20:00,
2013-08-04 15:21:00,80.6,64.0,29.91,ENE,68,0.0,1.3,57,0.00,,CLR,0.00,VWS V14.00,2013-08-04 22:21:00,
2013-08-04 15:22:00,80.8,64.1,29.91,NE,45,0.0,2.0,57,0.00,,CLR,0.00,VWS V14.00,2013-08-04 22:22:00,
2013-08-04 15:24:00,80.8,64.1,29.91,NW,315,0.0,2.0,57,0.00,,CLR,0.00,VWS V14.00,2013-08-04 22:24:00,
2013-08-04 15:26:00,81.0,64.3,29.91,SSW,202,0.0,2.0,57,0.00,,CLR,0.00,VWS V14.00,2013-08-04 22:26:00,
2013-08-04 15:28:00,81.0,64.3,29.91,West,270,0.0,2.0,57,0.00,,CLR,0.00,VWS V14.00,2013-08-04 22:28:00,
2013-08-04 15:29:00,81.1,64.5,29.91,West,270,0.9,2.0,57,0.00,,CLR,0.00,VWS V14.00,2013-08-04 22:29:00,
2013-08-04 15:31:00,81.3,64.7,29.91,NE,45,0.9,2.0,57,0.00,,CLR,0.00,VWS V14.00,2013-08-04 22:31:00,
2013-08-04 15:33:00,81.1,64.5,29.91,North,0,0.0,2.0,57,0.00,,CLR,0.00,VWS V14.00,2013-08-04 22:33:00,
2013-08-04 15:34:00,81.3,64.7,29.91,ESE,112,1.3,2.0,57,0.00,,CLR,0.00,VWS V14.00,2013-08-04 22:34:00,
2013-08-04 15:36:00,81.3,64.7,29.91,ESE,112,1.3,2.0,57,0.00,,CLR,0.00,VWS V14.00,2013-08-04 22:36:00,
2013-08-04 15:38:00,81.1,64.5,29.91,East,90,0.9,2.0,57,0.00,,CLR,0.00,VWS V14.00,2013-08-04 22:38:00,
2013-08-04 15:39:00,81.1,64.5,29.91,NE,45,0.0,1.3,57,0.00,,CLR,0.00,VWS V14.00,2013-08-04 22:39:00,
2013-08-04 15:40:00,81.1,64.5,29.91,NNE,22,0.0,1.3,57,0.00,,CLR,0.00,VWS V14.00,2013-08-04 22:40:00,
2013-08-04 15:41:00,81.1,64.5,29.91,NNE,22,0.0,1.3,57,0.00,,CLR,0.00,VWS V14.00,2013-08-04 22:41:00,
2013-08-04 15:43:00,81.1,64.0,29.91,NNW,338,0.0,1.3,56,0.00,,CLR,0.00,VWS V14.00,2013-08-04 22:43:00,
2013-08-04 15:44:00,81.1,64.5,29.91,NW,315,0.0,1.3,57,0.00,,CLR,0.00,VWS V14.00,2013-08-04 22:44:00,
2013-08-04 15:45:00,81.1,64.5,29.91,ESE,112,2.5,2.5,57,0.00,,CLR,0.00,VWS V14.00,2013-08-04 22:45:00,
2013-08-04 15:46:00,81.1,64.5,29.88,ENE,68,0.0,2.5,57,0.00,,CLR,0.00,VWS V14.00,2013-08-04 22:46:00,
2013-08-04 15:48:00,81.3,64.1,29.88,ENE,68,0.0,2.5,56,0.00,,CLR,0.00,VWS V14.00,2013-08-04 22:48:00,
2013-08-04 15:49:00,81.3,64.1,29.88,North,0,0.0,2.5,56,0.00,,CLR,0.00,VWS V14.00,2013-08-04 22:49:00,
2013-08-04 15:50:00,81.1,64.0,29.88,North,0,0.0,2.5,56,0.00,,CLR,0.00,VWS V14.00,2013-08-04 22:50:00,
2013-08-04 15:51:00,81.1,64.0,29.88,North,0,0.0,2.5,56,0.00,,CLR,0.00,VWS V14.00,2013-08-04 22:51:00,
2013-08-04 15:53:00,81.3,64.1,29.88,NNW,338,0.0,2.5,56,0.00,,CLR,0.00,VWS V14.00,2013-08-04 22:53:00,
2013-08-04 15:54:00,81.3,64.1,29.88,NNW,338,0.0,2.5,56,0.00,,CLR,0.00,VWS V14.00,2013-08-04 22:54:00,
2013-08-04 15:55:00,81.3,64.7,29.88,NNW,338,0.0,2.5,57,0.00,,CLR,0.00,VWS V14.00,2013-08-04 22:55:00,
2013-08-04 15:56:00,81.3,64.7,29.88,NNW,338,0.0,2.5,57,0.00,,CLR,0.00,VWS V14.00,2013-08-04 22:56:00,
2013-08-04 15:58:00,81.5,64.3,29.88,NNW,338,0.0,2.5,56,0.00,,CLR,0.00,VWS V14.00,2013-08-04 22:58:00,
2013-08-04 16:00:00,81.7,65.0,29.88,NNW,338,0.0,2.5,57,0.00,,CLR,0.00,VWS V14.00,2013-08-04 23:00:00,
2013-08-04 16:01:00,81.9,64.6,29.88,WNW,292,1.1,2.5,56,0.00,,CLR,0.00,VWS V14.00,2013-08-04 23:01:00,
2013-08-04 16:03:00,81.9,64.6,29.88,WNW,292,0.9,1.1,56,0.00,,CLR,0.00,VWS V14.00,2013-08-04 23:03:00,
2013-08-04 16:05:00,82.0,64.8,29.88,WNW,292,0.0,1.1,56,0.00,,CLR,0.00,VWS V14.00,2013-08-04 23:05:00,
2013-08-04 16:06:00,82.0,64.8,29.88,WNW,292,1.6,1.6,56,0.00,,CLR,0.00,VWS V14.00,2013-08-04 23:06:00,
2013-08-04 16:08:00,82.0,64.8,29.88,North,0,0.0,1.6,56,0.00,,CLR,0.00,VWS V14.00,2013-08-04 23:08:00,
2013-08-04 16:10:00,82.0,64.8,29.88,NNW,338,0.0,1.6,56,0.00,,CLR,0.00,VWS V14.00,2013-08-04 23:10:00,
2013-08-04 16:11:00,82.0,64.8,29.88,East,90,0.0,1.6,56,0.00,,CLR,0.00,VWS V14.00,2013-08-04 23:11:00,
2013-08-04 16:13:00,81.9,64.6,29.88,NNE,22,0.0,1.6,56,0.00,,CLR,0.00,VWS V14.00,2013-08-04 23:13:00,
2013-08-04 16:15:00,81.9,64.6,29.88,NNE,22,0.0,1.6,56,0.00,,CLR,0.00,VWS V14.00,2013-08-04 23:15:00,
2013-08-04 16:16:00,81.9,64.6,29.88,NNE,22,0.0,1.6,56,0.00,,CLR,0.00,VWS V14.00,2013-08-04 23:16:00,
2013-08-04 16:18:00,82.0,65.3,29.88,NNW,338,0.0,1.6,57,0.00,,CLR,0.00,VWS V14.00,2013-08-04 23:18:00,
2013-08-04 16:20:00,82.0,65.3,29.88,North,0,0.0,1.6,57,0.00,,CLR,0.00,VWS V14.00,2013-08-04 23:20:00,
2013-08-04 16:21:00,82.0,65.3,29.88,North,0,0.0,1.6,57,0.00,,CLR,0.00,VWS V14.00,2013-08-04 23:21:00,
2013-08-04 16:22:00,82.0,64.8,29.88,North,0,0.0,1.6,56,0.00,,CLR,0.00,VWS V14.00,2013-08-04 23:22:00,
2013-08-04 16:23:00,82.0,64.8,29.88,ENE,68,0.0,0.0,56,0.00,,CLR,0.00,VWS V14.00,2013-08-04 23:23:00,
2013-08-04 16:25:00,82.0,64.8,29.88,NE,45,0.0,0.9,56,0.00,,CLR,0.00,VWS V14.00,2013-08-04 23:25:00,
2013-08-04 16:26:00,81.9,64.6,29.88,North,0,0.0,0.9,56,0.00,,CLR,0.00,VWS V14.00,2013-08-04 23:26:00,
2013-08-04 16:27:00,81.9,64.6,29.88,North,0,0.0,0.9,56,0.00,,CLR,0.00,VWS V14.00,2013-08-04 23:27:00,
2013-08-04 16:29:00,81.9,65.2,29.88,NNW,338,0.0,0.9,57,0.00,,CLR,0.00,VWS V14.00,2013-08-04 23:29:00,
2013-08-04 16:30:00,81.9,65.2,29.88,NNW,338,0.0,0.9,57,0.00,,CLR,0.00,VWS V14.00,2013-08-04 23:30:00,
2013-08-04 16:31:00,81.9,64.6,29.88,NNW,338,0.0,0.9,56,0.00,,CLR,0.00,VWS V14.00,2013-08-04 23:31:00,
2013-08-04 16:32:00,81.9,64.6,29.88,NNW,338,0.0,0.9,56,0.00,,CLR,0.00,VWS V14.00,2013-08-04 23:32:00,
2013-08-04 16:34:00,81.9,64.6,29.88,NNW,338,0.0,0.9,56,0.00,,CLR,0.00,VWS V14.00,2013-08-04 23:34:00,
2013-08-04 16:35:00,82.0,64.8,29.88,NNW,338,0.0,0.9,56,0.00,,CLR,0.00,VWS V14.00,2013-08-04 23:35:00,
2013-08-04 16:36:00,82.0,64.8,29.88,NNW,338,0.0,0.9,56,0.00,,CLR,0.00,VWS V14.00,2013-08-04 23:36:00,
2013-08-04 16:37:00,82.0,64.8,29.88,NNW,338,0.0,0.9,56,0.00,,CLR,0.00,VWS V14.00,2013-08-04 23:37:00,
2013-08-04 16:39:00,81.9,64.6,29.88,NNW,338,0.0,0.9,56,0.00,,CLR,0.00,VWS V14.00,2013-08-04 23:39:00,
2013-08-04 16:40:00,81.9,64.6,29.88,NNW,338,1.1,1.1,56,0.00,,CLR,0.00,VWS V14.00,2013-08-04 23:40:00,
2013-08-04 16:41:00,81.9,64.6,29.88,NNW,338,1.1,1.1,56,0.00,,CLR,0.00,VWS V14.00,2013-08-04 23:41:00,
2013-08-04 16:42:00,81.7,64.5,29.88,NNW,338,1.6,1.6,56,0.00,,CLR,0.00,VWS V14.00,2013-08-04 23:42:00,
2013-08-04 16:44:00,81.7,64.5,29.88,NNW,338,0.0,1.6,56,0.00,,CLR,0.00,VWS V14.00,2013-08-04 23:44:00,
2013-08-04 16:45:00,81.5,64.3,29.88,NNW,338,0.0,1.6,56,0.00,,CLR,0.00,VWS V14.00,2013-08-04 23:45:00,
2013-08-04 16:46:00,81.5,64.3,29.88,NNW,338,0.0,1.6,56,0.00,,CLR,0.00,VWS V14.00,2013-08-04 23:46:00,
2013-08-04 16:47:00,81.5,64.3,29.88,NNW,338,1.1,1.6,56,0.00,,CLR,0.00,VWS V14.00,2013-08-04 23:47:00,
2013-08-04 16:49:00,81.7,64.5,29.88,NNW,338,0.9,1.6,56,0.00,,CLR,0.00,VWS V14.00,2013-08-04 23:49:00,
2013-08-04 16:50:00,81.7,64.5,29.88,NNW,338,0.0,1.6,56,0.00,,CLR,0.00,VWS V14.00,2013-08-04 23:50:00,
2013-08-04 16:51:00,81.7,64.5,29.88,NNW,338,0.0,1.6,56,0.00,,CLR,0.00,VWS V14.00,2013-08-04 23:51:00,
2013-08-04 16:52:00,81.7,64.5,29.88,NNW,338,0.0,1.6,56,0.00,,CLR,0.00,VWS V14.00,2013-08-04 23:52:00,
2013-08-04 16:54:00,81.5,64.3,29.88,NNW,338,0.0,1.6,56,0.00,,CLR,0.00,VWS V14.00,2013-08-04 23:54:00,
2013-08-04 16:56:00,81.7,64.5,29.88,NNW,338,0.0,1.6,56,0.00,,CLR,0.00,VWS V14.00,2013-08-04 23:56:00,
2013-08-04 16:57:00,81.7,64.5,29.88,NNW,338,0.9,1.6,56,0.00,,CLR,0.00,VWS V14.00,2013-08-04 23:57:00,
2013-08-04 16:59:00,81.7,64.5,29.88,WNW,292,2.2,2.5,56,0.00,,CLR,0.00,VWS V14.00,2013-08-04 23:59:00,
2013-08-04 17:01:00,81.7,64.5,29.88,WNW,292,0.0,2.5,56,0.00,,CLR,0.00,VWS V14.00,2013-08-05 00:01:00,
2013-08-04 17:02:00,81.7,64.5,29.88,NW,315,0.0,2.5,56,0.00,,CLR,0.00,VWS V14.00,2013-08-05 00:02:00,
2013-08-04 17:03:00,81.7,64.5,29.88,NW,315,0.0,2.5,56,0.00,,CLR,0.00,VWS V14.00,2013-08-05 00:03:00,
2013-08-04 17:04:00,81.9,64.1,29.88,WNW,292,0.9,2.5,55,0.00,,CLR,0.00,VWS V14.00,2013-08-05 00:04:00,
2013-08-04 17:06:00,81.9,64.1,29.88,NNW,338,0.0,2.5,55,0.00,,CLR,0.00,VWS V14.00,2013-08-05 00:06:00,
2013-08-04 17:07:00,81.9,64.6,29.88,NNW,338,0.0,2.5,56,0.00,,CLR,0.00,VWS V14.00,2013-08-05 00:07:00,
2013-08-04 17:08:00,81.9,64.6,29.88,NW,315,0.0,2.5,56,0.00,,CLR,0.00,VWS V14.00,2013-08-05 00:08:00,
2013-08-04 17:09:00,81.9,64.6,29.88,NW,315,0.0,2.5,56,0.00,,CLR,0.00,VWS V14.00,2013-08-05 00:09:00,
2013-08-04 17:11:00,81.9,64.1,29.88,NNE,22,0.0,2.5,55,0.00,,CLR,0.00,VWS V14.00,2013-08-05 00:11:00,
2013-08-04 17:12:00,81.7,64.0,29.88,WNW,292,2.2,2.5,55,0.00,,CLR,0.00,VWS V14.00,2013-08-05 00:12:00,
2013-08-04 17:13:00,81.7,64.0,29.88,NW,315,0.0,2.5,55,0.00,,CLR,0.00,VWS V14.00,2013-08-05 00:13:00,
2013-08-04 17:14:00,81.7,64.0,29.88,NNW,338,0.0,2.5,55,0.00,,CLR,0.00,VWS V14.00,2013-08-05 00:14:00,
2013-08-04 17:16:00,81.7,64.0,29.88,NW,315,0.0,2.5,55,0.00,,CLR,0.00,VWS V14.00,2013-08-05 00:16:00,
2013-08-04 17:17:00,81.9,64.1,29.88,West,270,0.0,2.2,55,0.00,,CLR,0.00,VWS V14.00,2013-08-05 00:17:00,
2013-08-04 17:18:00,82.0,64.8,29.88,NNW,338,0.0,2.2,56,0.00,,CLR,0.00,VWS V14.00,2013-08-05 00:18:00,
2013-08-04 17:19:00,82.0,64.8,29.88,WNW,292,2.9,2.9,56,0.00,,CLR,0.00,VWS V14.00,2013-08-05 00:19:00,
2013-08-04 17:21:00,82.0,64.3,29.88,WNW,292,0.0,2.9,55,0.00,,CLR,0.00,VWS V14.00,2013-08-05 00:21:00,
2013-08-04 17:22:00,82.0,64.3,29.88,NW,315,0.0,2.9,55,0.00,,CLR,0.00,VWS V14.00,2013-08-05 00:22:00,
2013-08-04 17:23:00,82.0,64.3,29.88,NNW,338,0.0,2.9,55,0.00,,CLR,0.00,VWS V14.00,2013-08-05 00:23:00,
2013-08-04 17:24:00,82.0,64.3,29.88,NNW,338,0.0,2.9,55,0.00,,CLR,0.00,VWS V14.00,2013-08-05 00:24:00,
2013-08-04 17:26:00,82.0,64.3,29.88,West,270,0.9,2.9,55,0.00,,CLR,0.00,VWS V14.00,2013-08-05 00:26:00,
2013-08-04 17:27:00,82.0,64.3,29.88,NW,315,0.9,2.9,55,0.00,,CLR,0.00,VWS V14.00,2013-08-05 00:27:00,
2013-08-04 17:28:00,82.0,64.3,29.88,SSW,202,0.0,2.9,55,0.00,,CLR,0.00,VWS V14.00,2013-08-05 00:28:00,
2013-08-04 17:29:00,82.0,64.3,29.88,East,90,1.1,2.9,55,0.00,,CLR,0.00,VWS V14.00,2013-08-05 00:29:00,
2013-08-04 17:31:00,82.0,64.3,29.88,SE,135,1.3,2.9,55,0.00,,CLR,0.00,VWS V14.00,2013-08-05 00:31:00,
2013-08-04 17:32:00,82.0,64.3,29.88,NNE,22,1.1,2.9,55,0.00,,CLR,0.00,VWS V14.00,2013-08-05 00:32:00,
2013-08-04 17:33:00,81.7,64.0,29.88,NNE,22,1.1,2.9,55,0.00,,CLR,0.00,VWS V14.00,2013-08-05 00:33:00,
2013-08-04 17:35:00,81.7,64.0,29.88,NW,315,1.3,2.9,55,0.00,,CLR,0.00,VWS V14.00,2013-08-05 00:35:00,
2013-08-04 17:36:00,81.7,64.0,29.88,NNW,338,0.0,2.9,55,0.00,,CLR,0.00,VWS V14.00,2013-08-05 00:36:00,
2013-08-04 17:37:00,81.7,64.0,29.88,West,270,1.1,2.9,55,0.00,,CLR,0.00,VWS V14.00,2013-08-05 00:37:00,
2013-08-04 17:38:00,81.7,64.0,29.88,WNW,292,0.0,1.3,55,0.00,,CLR,0.00,VWS V14.00,2013-08-05 00:38:00,
2013-08-04 17:40:00,81.5,63.8,29.88,North,0,0.9,1.3,55,0.00,,CLR,0.00,VWS V14.00,2013-08-05 00:40:00,
2013-08-04 17:41:00,81.5,63.8,29.88,NW,315,0.9,1.3,55,0.00,,CLR,0.00,VWS V14.00,2013-08-05 00:41:00,
2013-08-04 17:42:00,81.5,63.8,29.88,NNW,338,1.1,1.3,55,0.00,,CLR,0.00,VWS V14.00,2013-08-05 00:42:00,
2013-08-04 17:43:00,81.3,63.6,29.88,WNW,292,0.0,1.3,55,0.00,,CLR,0.00,VWS V14.00,2013-08-05 00:43:00,
2013-08-04 17:45:00,81.3,63.6,29.88,NW,315,0.0,1.3,55,0.00,,CLR,0.00,VWS V14.00,2013-08-05 00:45:00,
2013-08-04 17:46:00,81.3,63.6,29.88,WSW,248,0.9,2.5,55,0.00,,CLR,0.00,VWS V14.00,2013-08-05 00:46:00,
2013-08-04 17:47:00,81.3,63.6,29.88,WSW,248,0.9,2.5,55,0.00,,CLR,0.00,VWS V14.00,2013-08-05 00:47:00,
2013-08-04 17:48:00,81.3,64.1,29.88,NNW,338,0.0,2.5,56,0.00,,CLR,0.00,VWS V14.00,2013-08-05 00:48:00,
2013-08-04 17:50:00,81.3,63.6,29.88,NNW,338,2.2,2.5,55,0.00,,CLR,0.00,VWS V14.00,2013-08-05 00:50:00,
2013-08-04 17:52:00,81.1,63.5,29.88,WNW,292,0.0,2.5,55,0.00,,CLR,0.00,VWS V14.00,2013-08-05 00:52:00,
2013-08-04 17:53:00,81.1,63.5,29.88,NW,315,0.9,2.5,55,0.00,,CLR,0.00,VWS V14.00,2013-08-05 00:53:00,
2013-08-04 17:55:00,81.1,63.5,29.88,NNE,22,0.0,2.5,55,0.00,,CLR,0.00,VWS V14.00,2013-08-05 00:55:00,
2013-08-04 17:57:00,81.0,63.3,29.88,WSW,248,0.9,2.5,55,0.00,,CLR,0.00,VWS V14.00,2013-08-05 00:57:00,
2013-08-04 17:58:00,81.0,63.3,29.88,WNW,292,1.1,2.5,55,0.00,,CLR,0.00,VWS V14.00,2013-08-05 00:58:00,
2013-08-04 18:00:00,81.0,63.8,29.88,WNW,292,0.9,2.5,56,0.00,,CLR,0.00,VWS V14.00,2013-08-05 01:00:00,
2013-08-04 18:02:00,81.0,63.8,29.88,NW,315,0.9,2.5,56,0.00,,CLR,0.00,VWS V14.00,2013-08-05 01:02:00,
2013-08-04 18:03:00,81.0,63.8,29.88,WNW,292,0.0,2.2,56,0.00,,CLR,0.00,VWS V14.00,2013-08-05 01:03:00,
2013-08-04 18:05:00,80.6,63.5,29.88,North,0,0.0,2.2,56,0.00,,CLR,0.00,VWS V14.00,2013-08-05 01:05:00,
2013-08-04 18:07:00,80.6,63.5,29.88,NNW,338,0.9,2.0,56,0.00,,CLR,0.00,VWS V14.00,2013-08-05 01:07:00,
2013-08-04 18:08:00,80.4,63.3,29.88,SSW,202,2.0,2.0,56,0.00,,CLR,0.00,VWS V14.00,2013-08-05 01:08:00,
2013-08-04 18:10:00,80.4,63.3,29.88,NNE,22,0.0,2.0,56,0.00,,CLR,0.00,VWS V14.00,2013-08-05 01:10:00,
2013-08-04 18:12:00,80.2,63.1,29.88,WNW,292,0.0,2.0,56,0.00,,CLR,0.00,VWS V14.00,2013-08-05 01:12:00,
2013-08-04 18:13:00,80.2,63.1,29.88,SSW,202,0.9,2.0,56,0.00,,CLR,0.00,VWS V14.00,2013-08-05 01:13:00,
2013-08-04 18:15:00,80.2,63.1,29.88,WNW,292,1.1,2.0,56,0.00,,CLR,0.00,VWS V14.00,2013-08-05 01:15:00,
2013-08-04 18:17:00,80.2,63.1,29.88,WSW,248,0.0,2.0,56,0.00,,CLR,0.00,VWS V14.00,2013-08-05 01:17:00,
2013-08-04 18:18:00,80.2,63.1,29.88,WSW,248,0.0,2.0,56,0.00,,CLR,0.00,VWS V14.00,2013-08-05 01:18:00,
2013-08-04 18:20:00,79.7,62.6,29.88,NNW,338,0.0,2.0,56,0.00,,CLR,0.00,VWS V14.00,2013-08-05 01:20:00,
2013-08-04 18:22:00,79.7,62.6,29.88,ESE,112,0.0,2.0,56,0.00,,CLR,0.00,VWS V14.00,2013-08-05 01:22:00,
2013-08-04 18:23:00,79.7,62.6,29.88,NNW,338,0.0,2.0,56,0.00,,CLR,0.00,VWS V14.00,2013-08-05 01:23:00,
2013-08-04 18:24:00,79.7,62.6,29.88,NNW,338,0.0,2.0,56,0.00,,CLR,0.00,VWS V14.00,2013-08-05 01:24:00,
2013-08-04 18:25:00,79.5,62.5,29.88,NW,315,0.9,2.0,56,0.00,,CLR,0.00,VWS V14.00,2013-08-05 01:25:00,
2013-08-04 18:27:00,79.5,62.5,29.88,NNW,338,0.0,4.0,56,0.00,,CLR,0.00,VWS V14.00,2013-08-05 01:27:00,
2013-08-04 18:28:00,79.5,62.5,29.88,NNW,338,1.1,4.0,56,0.00,,CLR,0.00,VWS V14.00,2013-08-05 01:28:00,
2013-08-04 18:29:00,79.3,62.3,29.88,NNW,338,1.1,4.0,56,0.00,,CLR,0.00,VWS V14.00,2013-08-05 01:29:00,
2013-08-04 18:30:00,79.3,62.3,29.88,NNW,338,0.0,4.0,56,0.00,,CLR,0.00,VWS V14.00,2013-08-05 01:30:00,
2013-08-04 18:32:00,79.3,62.3,29.88,NNW,338,0.0,4.0,56,0.00,,CLR,0.00,VWS V14.00,2013-08-05 01:32:00,
2013-08-04 18:33:00,79.3,62.3,29.88,NNW,338,0.0,4.0,56,0.00,,CLR,0.00,VWS V14.00,2013-08-05 01:33:00,
2013-08-04 18:34:00,79.2,62.6,29.88,NNW,338,0.0,4.0,57,0.00,,CLR,0.00,VWS V14.00,2013-08-05 01:34:00,
2013-08-04 18:36:00,79.2,62.6,29.88,WNW,292,3.4,4.0,57,0.00,,CLR,0.00,VWS V14.00,2013-08-05 01:36:00,
2013-08-04 18:37:00,79.0,62.0,29.88,WNW,292,1.3,4.0,56,0.00,,CLR,0.00,VWS V14.00,2013-08-05 01:37:00,
2013-08-04 18:38:00,79.0,62.5,29.88,WNW,292,1.3,4.0,57,0.00,,CLR,0.00,VWS V14.00,2013-08-05 01:38:00,
2013-08-04 18:39:00,79.0,62.5,29.88,WSW,248,0.0,4.0,57,0.00,,CLR,0.00,VWS V14.00,2013-08-05 01:39:00,
2013-08-04 18:41:00,78.8,62.3,29.88,WSW,248,0.0,4.0,57,0.00,,CLR,0.00,VWS V14.00,2013-08-05 01:41:00,
2013-08-04 18:42:00,78.8,62.3,29.88,NNE,22,0.0,4.0,57,0.00,,CLR,0.00,VWS V14.00,2013-08-05 01:42:00,
2013-08-04 18:43:00,78.6,62.1,29.88,NNE,22,0.0,3.4,57,0.00,,CLR,0.00,VWS V14.00,2013-08-05 01:43:00,
2013-08-04 18:44:00,78.6,62.1,29.88,East,90,0.0,3.4,57,0.00,,CLR,0.00,VWS V14.00,2013-08-05 01:44:00,
2013-08-04 18:46:00,78.6,62.1,29.88,WNW,292,2.0,3.4,57,0.00,,CLR,0.00,VWS V14.00,2013-08-05 01:46:00,
2013-08-04 18:47:00,78.6,62.1,29.88,NE,45,0.0,3.4,57,0.00,,CLR,0.00,VWS V14.00,2013-08-05 01:47:00,
2013-08-04 18:48:00,78.4,62.0,29.88,West,270,0.0,3.4,57,0.00,,CLR,0.00,VWS V14.00,2013-08-05 01:48:00,
2013-08-04 18:49:00,78.4,62.0,29.88,WNW,292,0.9,3.4,57,0.00,,CLR,0.00,VWS V14.00,2013-08-05 01:49:00,
2013-08-04 18:51:00,78.4,62.0,29.88,NW,315,0.0,3.4,57,0.00,,CLR,0.00,VWS V14.00,2013-08-05 01:51:00,
2013-08-04 18:52:00,78.3,61.8,29.88,NW,315,0.0,3.4,57,0.00,,CLR,0.00,VWS V14.00,2013-08-05 01:52:00,
2013-08-04 18:53:00,78.3,61.8,29.88,ENE,68,0.0,2.2,57,0.00,,CLR,0.00,VWS V14.00,2013-08-05 01:53:00,
2013-08-04 18:54:00,78.3,61.8,29.88,ENE,68,0.0,2.2,57,0.00,,CLR,0.00,VWS V14.00,2013-08-05 01:54:00,
2013-08-04 18:57:00,78.1,61.6,29.88,ENE,68,0.0,2.2,57,0.00,,CLR,0.00,VWS V14.00,2013-08-05 01:57:00,
2013-08-04 18:58:00,78.1,61.6,29.88,ENE,68,0.0,2.2,57,0.00,,CLR,0.00,VWS V14.00,2013-08-05 01:58:00,
2013-08-04 18:59:00,77.9,62.0,29.88,ENE,68,0.0,2.2,58,0.00,,CLR,0.00,VWS V14.00,2013-08-05 01:59:00,
2013-08-04 19:00:00,77.9,62.0,29.88,WSW,248,0.0,2.2,58,0.00,,CLR,0.00,VWS V14.00,2013-08-05 02:00:00,
2013-08-04 19:02:00,77.7,61.3,29.88,WSW,248,0.0,2.2,57,0.00,,CLR,0.00,VWS V14.00,2013-08-05 02:02:00,
2013-08-04 19:03:00,77.5,61.1,29.88,NNW,338,0.0,2.0,57,0.00,,CLR,0.00,VWS V14.00,2013-08-05 02:03:00,
2013-08-04 19:04:00,77.5,61.1,29.88,WNW,292,0.0,2.0,57,0.00,,CLR,0.00,VWS V14.00,2013-08-05 02:04:00,
2013-08-04 19:05:00,77.4,61.4,29.88,NE,45,0.0,0.9,58,0.00,,CLR,0.00,VWS V14.00,2013-08-05 02:05:00,
2013-08-04 19:07:00,77.2,60.8,29.88,North,0,0.9,0.9,57,0.00,,CLR,0.00,VWS V14.00,2013-08-05 02:07:00,
2013-08-04 19:08:00,77.2,61.3,29.88,WNW,292,0.0,0.9,58,0.00,,CLR,0.00,VWS V14.00,2013-08-05 02:08:00,
2013-08-04 19:09:00,77.2,61.3,29.88,West,270,0.0,0.9,58,0.00,,CLR,0.00,VWS V14.00,2013-08-05 02:09:00,
2013-08-04 19:10:00,77.0,61.1,29.88,West,270,0.0,0.9,58,0.00,,CLR,0.00,VWS V14.00,2013-08-05 02:10:00,
2013-08-04 19:12:00,77.0,61.1,29.88,West,270,0.0,0.9,58,0.00,,CLR,0.00,VWS V14.00,2013-08-05 02:12:00,
2013-08-04 19:13:00,76.8,60.9,29.88,West,270,0.0,0.9,58,0.00,,CLR,0.00,VWS V14.00,2013-08-05 02:13:00,
2013-08-04 19:14:00,76.8,60.9,29.88,WNW,292,0.0,0.9,58,0.00,,CLR,0.00,VWS V14.00,2013-08-05 02:14:00,
2013-08-04 19:15:00,76.8,60.9,29.88,WNW,292,0.0,0.9,58,0.00,,CLR,0.00,VWS V14.00,2013-08-05 02:15:00,
2013-08-04 19:17:00,76.8,60.9,29.88,WSW,248,0.0,0.9,58,0.00,,CLR,0.00,VWS V14.00,2013-08-05 02:17:00,
2013-08-04 19:18:00,76.8,60.9,29.88,WNW,292,1.3,1.3,58,0.00,,CLR,0.00,VWS V14.00,2013-08-05 02:18:00,
2013-08-04 19:19:00,76.5,60.6,29.88,WNW,292,1.3,1.3,58,0.00,,CLR,0.00,VWS V14.00,2013-08-05 02:19:00,
2013-08-04 19:20:00,76.5,60.6,29.88,WNW,292,1.3,1.3,58,0.00,,CLR,0.00,VWS V14.00,2013-08-05 02:20:00,
2013-08-04 19:22:00,76.3,60.4,29.88,NNW,338,0.0,1.3,58,0.00,,CLR,0.00,VWS V14.00,2013-08-05 02:22:00,
2013-08-04 19:23:00,76.3,60.4,29.88,NNW,338,0.0,1.3,58,0.00,,CLR,0.00,VWS V14.00,2013-08-05 02:23:00,
2013-08-04 19:24:00,76.1,60.3,29.88,NNW,338,0.0,1.3,58,0.00,,CLR,0.00,VWS V14.00,2013-08-05 02:24:00,
2013-08-04 19:25:00,76.1,60.3,29.88,NNW,338,0.0,1.3,58,0.00,,CLR,0.00,VWS V14.00,2013-08-05 02:25:00,
2013-08-04 19:27:00,75.7,59.9,29.88,WSW,248,0.0,1.3,58,0.00,,CLR,0.00,VWS V14.00,2013-08-05 02:27:00,
2013-08-04 19:28:00,75.7,59.9,29.88,WNW,292,0.0,1.3,58,0.00,,CLR,0.00,VWS V14.00,2013-08-05 02:28:00,
2013-08-04 19:29:00,75.7,59.9,29.88,WNW,292,0.0,0.0,58,0.00,,CLR,0.00,VWS V14.00,2013-08-05 02:29:00,
2013-08-04 19:30:00,75.7,59.9,29.88,WNW,292,0.0,0.0,58,0.00,,CLR,0.00,VWS V14.00,2013-08-05 02:30:00,
2013-08-04 19:32:00,75.6,59.8,29.88,WNW,292,0.0,1.3,58,0.00,,CLR,0.00,VWS V14.00,2013-08-05 02:32:00,
2013-08-04 19:33:00,75.6,59.8,29.88,WNW,292,0.0,1.3,58,0.00,,CLR,0.00,VWS V14.00,2013-08-05 02:33:00,
2013-08-04 19:34:00,75.4,60.1,29.88,WNW,292,0.0,1.3,59,0.00,,CLR,0.00,VWS V14.00,2013-08-05 02:34:00,
2013-08-04 19:35:00,75.4,60.1,29.88,NNW,338,1.1,1.3,59,0.00,,CLR,0.00,VWS V14.00,2013-08-05 02:35:00,
2013-08-04 19:37:00,75.4,60.1,29.88,NW,315,0.0,1.3,59,0.00,,CLR,0.00,VWS V14.00,2013-08-05 02:37:00,
2013-08-04 19:38:00,75.2,59.9,29.88,NW,315,0.9,1.3,59,0.00,,CLR,0.00,VWS V14.00,2013-08-05 02:38:00,
2013-08-04 19:39:00,75.2,59.9,29.88,SSW,202,0.0,1.3,59,0.00,,CLR,0.00,VWS V14.00,2013-08-05 02:39:00,
2013-08-04 19:40:00,75.2,59.9,29.88,SSW,202,0.0,1.3,59,0.00,,CLR,0.00,VWS V14.00,2013-08-05 02:40:00,
2013-08-04 19:43:00,75.2,59.9,29.88,WNW,292,0.0,1.3,59,0.00,,CLR,0.00,VWS V14.00,2013-08-05 02:43:00,
2013-08-04 19:44:00,75.0,59.7,29.88,WNW,292,0.0,1.3,59,0.00,,CLR,0.00,VWS V14.00,2013-08-05 02:44:00,
2013-08-04 19:45:00,74.8,59.6,29.88,WNW,292,0.0,1.1,59,0.00,,CLR,0.00,VWS V14.00,2013-08-05 02:45:00,
2013-08-04 19:48:00,74.8,60.0,29.88,SSE,158,0.0,1.1,60,0.00,,CLR,0.00,VWS V14.00,2013-08-05 02:48:00,
2013-08-04 19:49:00,74.7,59.4,29.88,WNW,292,0.0,1.1,59,0.00,,CLR,0.00,VWS V14.00,2013-08-05 02:49:00,
2013-08-04 19:50:00,74.5,59.2,29.88,WNW,292,0.0,1.1,59,0.00,,CLR,0.00,VWS V14.00,2013-08-05 02:50:00,
2013-08-04 19:53:00,74.5,59.7,29.88,WNW,292,0.0,0.0,60,0.00,,CLR,0.00,VWS V14.00,2013-08-05 02:53:00,
2013-08-04 19:54:00,74.5,59.7,29.88,WNW,292,0.0,0.0,60,0.00,,CLR,0.00,VWS V14.00,2013-08-05 02:54:00,
2013-08-04 19:55:00,74.5,59.7,29.88,WNW,292,0.0,0.0,60,0.00,,CLR,0.00,VWS V14.00,2013-08-05 02:55:00,
2013-08-04 19:58:00,74.1,59.4,29.88,NW,315,0.0,2.2,60,0.00,,CLR,0.00,VWS V14.00,2013-08-05 02:58:00,
2013-08-04 19:59:00,73.9,58.7,29.88,WNW,292,0.0,2.2,59,0.00,,CLR,0.00,VWS V14.00,2013-08-05 02:59:00,
2013-08-04 20:00:00,73.9,58.7,29.88,WSW,248,2.0,2.2,59,0.00,,CLR,0.00,VWS V14.00,2013-08-05 03:00:00,
2013-08-04 20:03:00,73.6,58.8,29.88,WNW,292,0.0,2.2,60,0.00,,CLR,0.00,VWS V14.00,2013-08-05 03:03:00,
2013-08-04 20:04:00,73.4,58.7,29.88,WNW,292,0.0,2.0,60,0.00,,CLR,0.00,VWS V14.00,2013-08-05 03:04:00,
2013-08-04 20:05:00,73.4,58.7,29.88,WNW,292,0.0,2.0,60,0.00,,CLR,0.00,VWS V14.00,2013-08-05 03:05:00,
2013-08-04 20:08:00,73.4,58.7,29.88,ENE,68,0.0,1.3,60,0.00,,CLR,0.00,VWS V14.00,2013-08-05 03:08:00,
2013-08-04 20:09:00,72.9,58.2,29.88,SSE,158,0.0,3.4,60,0.00,,CLR,0.00,VWS V14.00,2013-08-05 03:09:00,
2013-08-04 20:10:00,72.9,58.2,29.88,SSE,158,0.0,3.4,60,0.00,,CLR,0.00,VWS V14.00,2013-08-05 03:10:00,
2013-08-04 20:13:00,72.7,58.5,29.88,West,270,2.0,3.4,61,0.00,,CLR,0.00,VWS V14.00,2013-08-05 03:13:00,
2013-08-04 20:14:00,72.7,58.5,29.88,West,270,2.0,3.4,61,0.00,,CLR,0.00,VWS V14.00,2013-08-05 03:14:00,
2013-08-04 20:15:00,72.7,58.5,29.88,West,270,2.0,3.4,61,0.00,,CLR,0.00,VWS V14.00,2013-08-05 03:15:00,
2013-08-04 20:18:00,72.3,58.1,29.88,SW,225,2.5,3.4,61,0.00,,CLR,0.00,VWS V14.00,2013-08-05 03:18:00,
2013-08-04 20:19:00,72.0,57.8,29.88,East,90,0.0,2.7,61,0.00,,CLR,0.00,VWS V14.00,2013-08-05 03:19:00,
2013-08-04 20:20:00,72.0,57.8,29.88,East,90,0.0,2.7,61,0.00,,CLR,0.00,VWS V14.00,2013-08-05 03:20:00,
2013-08-04 20:23:00,71.8,57.6,29.88,ESE,112,1.1,2.7,61,0.00,,CLR,0.00,VWS V14.00,2013-08-05 03:23:00,
2013-08-04 20:25:00,71.8,57.6,29.88,WSW,248,0.0,2.7,61,0.00,,CLR,0.00,VWS V14.00,2013-08-05 03:25:00,
2013-08-04 20:28:00,71.6,57.5,29.88,West,270,0.0,1.1,61,0.00,,CLR,0.00,VWS V14.00,2013-08-05 03:28:00,
2013-08-04 20:30:00,71.6,57.5,29.88,WSW,248,2.2,2.2,61,0.00,,CLR,0.00,VWS V14.00,2013-08-05 03:30:00,
2013-08-04 20:33:00,71.2,57.6,29.91,SW,225,1.1,2.7,62,0.00,,CLR,0.00,VWS V14.00,2013-08-05 03:33:00,
2013-08-04 20:34:00,71.2,57.6,29.91,SW,225,1.1,2.7,62,0.00,,CLR,0.00,VWS V14.00,2013-08-05 03:34:00,
2013-08-04 20:35:00,71.1,57.4,29.91,SW,225,1.1,2.7,62,0.00,,CLR,0.00,VWS V14.00,2013-08-05 03:35:00,
2013-08-04 20:38:00,70.9,57.2,29.91,NW,315,0.9,2.7,62,0.00,,CLR,0.00,VWS V14.00,2013-08-05 03:38:00,
2013-08-04 20:39:00,70.9,57.2,29.91,NW,315,0.9,2.7,62,0.00,,CLR,0.00,VWS V14.00,2013-08-05 03:39:00,
2013-08-04 20:40:00,70.7,57.1,29.91,WNW,292,0.0,2.7,62,0.00,,CLR,0.00,VWS V14.00,2013-08-05 03:40:00,
2013-08-04 20:44:00,70.3,57.2,29.91,WSW,248,0.0,2.7,63,0.00,,CLR,0.00,VWS V14.00,2013-08-05 03:44:00,
2013-08-04 20:45:00,70.3,57.2,29.91,West,270,0.0,2.7,63,0.00,,CLR,0.00,VWS V14.00,2013-08-05 03:45:00,
2013-08-04 20:46:00,70.3,57.2,29.91,WNW,292,0.9,2.7,63,0.00,,CLR,0.00,VWS V14.00,2013-08-05 03:46:00,
2013-08-04 20:49:00,70.3,57.2,29.91,West,270,1.6,2.7,63,0.00,,CLR,0.00,VWS V14.00,2013-08-05 03:49:00,
2013-08-04 20:50:00,70.3,57.2,29.91,West,270,0.0,2.7,63,0.00,,CLR,0.00,VWS V14.00,2013-08-05 03:50:00,
2013-08-04 20:51:00,70.3,57.2,29.91,West,270,0.0,2.5,63,0.00,,CLR,0.00,VWS V14.00,2013-08-05 03:51:00,
2013-08-04 20:54:00,70.0,56.8,29.91,NW,315,0.9,2.5,63,0.00,,CLR,0.00,VWS V14.00,2013-08-05 03:54:00,
2013-08-04 20:55:00,70.0,56.8,29.91,East,90,0.0,2.5,63,0.00,,CLR,0.00,VWS V14.00,2013-08-05 03:55:00,
2013-08-04 20:56:00,70.0,56.8,29.91,East,90,0.0,2.5,63,0.00,,CLR,0.00,VWS V14.00,2013-08-05 03:56:00,
2013-08-04 20:59:00,69.8,56.7,29.91,WSW,248,0.0,2.5,63,0.00,,CLR,0.00,VWS V14.00,2013-08-05 03:59:00,
2013-08-04 21:00:00,69.6,56.9,29.91,WSW,248,0.0,2.5,64,0.00,,CLR,0.00,VWS V14.00,2013-08-05 04:00:00,
2013-08-04 21:01:00,69.6,56.9,29.91,South,180,2.2,2.5,64,0.00,,CLR,0.00,VWS V14.00,2013-08-05 04:01:00,
2013-08-04 21:06:00,69.3,56.6,29.91,WNW,292,0.0,2.5,64,0.00,,CLR,0.00,VWS V14.00,2013-08-05 04:06:00,
2013-08-04 21:11:00,69.1,56.4,29.91,WSW,248,1.6,2.5,64,0.00,,CLR,0.00,VWS V14.00,2013-08-05 04:11:00,
2013-08-04 21:16:00,68.9,56.2,29.91,WNW,292,2.7,2.7,64,0.00,,CLR,0.00,VWS V14.00,2013-08-05 04:16:00,
2013-08-04 21:17:00,68.7,56.1,29.91,WSW,248,2.0,2.7,64,0.00,,CLR,0.00,VWS V14.00,2013-08-05 04:17:00,
2013-08-04 21:21:00,68.5,55.9,29.91,WSW,248,0.9,2.7,64,0.00,,CLR,0.00,VWS V14.00,2013-08-05 04:21:00,
2013-08-04 21:22:00,68.5,55.9,29.91,WSW,248,0.0,2.7,64,0.00,,CLR,0.00,VWS V14.00,2013-08-05 04:22:00,
2013-08-04 21:26:00,68.4,56.2,29.91,East,90,2.5,2.7,65,0.00,,CLR,0.00,VWS V14.00,2013-08-05 04:26:00,
2013-08-04 21:27:00,68.4,56.2,29.91,WNW,292,1.6,2.7,65,0.00,,CLR,0.00,VWS V14.00,2013-08-05 04:27:00,
2013-08-04 21:31:00,68.0,55.8,29.91,WNW,292,0.0,3.6,65,0.00,,CLR,0.00,VWS V14.00,2013-08-05 04:31:00,
2013-08-04 21:32:00,68.0,55.8,29.91,WNW,292,0.0,3.6,65,0.00,,CLR,0.00,VWS V14.00,2013-08-05 04:32:00,
2013-08-04 21:36:00,68.0,55.8,29.91,West,270,0.0,3.6,65,0.00,,CLR,0.00,VWS V14.00,2013-08-05 04:36:00,
2013-08-04 21:37:00,68.0,55.8,29.91,NW,315,0.0,3.6,65,0.00,,CLR,0.00,VWS V14.00,2013-08-05 04:37:00,
2013-08-04 21:41:00,67.5,55.7,29.91,WSW,248,2.0,3.6,66,0.00,,CLR,0.00,VWS V14.00,2013-08-05 04:41:00,
2013-08-04 21:42:00,67.5,55.7,29.91,West,270,0.9,3.6,66,0.00,,CLR,0.00,VWS V14.00,2013-08-05 04:42:00,
2013-08-04 21:46:00,67.5,55.7,29.94,NNW,338,0.9,2.2,66,0.00,,CLR,0.00,VWS V14.00,2013-08-05 04:46:00,
2013-08-04 21:47:00,67.3,55.5,29.94,NNW,338,0.9,2.2,66,0.00,,CLR,0.00,VWS V14.00,2013-08-05 04:47:00,
2013-08-04 21:51:00,67.3,55.5,29.94,WSW,248,0.0,2.0,66,0.00,,CLR,0.00,VWS V14.00,2013-08-05 04:51:00,
2013-08-04 21:52:00,67.1,55.8,29.94,WSW,248,0.0,2.0,67,0.00,,CLR,0.00,VWS V14.00,2013-08-05 04:52:00,
2013-08-04 21:57:00,66.9,55.6,29.94,East,90,0.0,2.2,67,0.00,,CLR,0.00,VWS V14.00,2013-08-05 04:57:00,
2013-08-04 22:02:00,66.7,55.5,29.94,West,270,1.1,2.5,67,0.00,,CLR,0.00,VWS V14.00,2013-08-05 05:02:00,
2013-08-04 22:07:00,66.4,55.1,29.94,NW,315,0.0,2.5,67,0.00,,CLR,0.00,VWS V14.00,2013-08-05 05:07:00,
2013-08-04 22:12:00,66.2,54.9,29.94,WNW,292,0.0,2.5,67,0.00,,CLR,0.00,VWS V14.00,2013-08-05 05:12:00,
2013-08-04 22:13:00,66.2,54.9,29.94,WSW,248,2.5,2.5,67,0.00,,CLR,0.00,VWS V14.00,2013-08-05 05:13:00,
2013-08-04 22:17:00,66.0,55.2,29.94,West,270,0.0,2.5,68,0.00,,CLR,0.00,VWS V14.00,2013-08-05 05:17:00,
2013-08-04 22:18:00,66.0,55.2,29.94,West,270,0.0,2.5,68,0.00,,CLR,0.00,VWS V14.00,2013-08-05 05:18:00,
2013-08-04 22:22:00,65.8,55.0,29.94,West,270,0.9,2.5,68,0.00,,CLR,0.00,VWS V14.00,2013-08-05 05:22:00,
2013-08-04 22:23:00,65.8,55.0,29.94,West,270,0.9,2.5,68,0.00,,CLR,0.00,VWS V14.00,2013-08-05 05:23:00,
2013-08-04 22:27:00,65.8,55.0,29.94,WSW,248,0.0,2.5,68,0.00,,CLR,0.00,VWS V14.00,2013-08-05 05:27:00,
2013-08-04 22:28:00,65.7,54.8,29.94,WSW,248,0.0,2.5,68,0.00,,CLR,0.00,VWS V14.00,2013-08-05 05:28:00,
2013-08-04 22:32:00,65.7,55.2,29.94,WSW,248,0.0,2.0,69,0.00,,CLR,0.00,VWS V14.00,2013-08-05 05:32:00,
2013-08-04 22:33:00,65.7,55.2,29.94,WSW,248,0.0,0.9,69,0.00,,CLR,0.00,VWS V14.00,2013-08-05 05:33:00,
2013-08-04 22:37:00,65.5,55.0,29.94,WNW,292,0.0,0.9,69,0.00,,CLR,0.00,VWS V14.00,2013-08-05 05:37:00,
2013-08-04 22:38:00,65.5,55.0,29.94,WNW,292,0.0,0.9,69,0.00,,CLR,0.00,VWS V14.00,2013-08-05 05:38:00,
2013-08-04 22:42:00,65.3,54.9,29.94,NNW,338,0.0,0.0,69,0.00,,CLR,0.00,VWS V14.00,2013-08-05 05:42:00,
2013-08-04 22:43:00,65.3,54.9,29.94,NNW,338,0.0,0.0,69,0.00,,CLR,0.00,VWS V14.00,2013-08-05 05:43:00,
2013-08-04 22:47:00,65.1,54.7,29.94,ENE,68,0.0,0.9,69,0.00,,CLR,0.00,VWS V14.00,2013-08-05 05:47:00,
2013-08-04 22:48:00,65.1,54.7,29.94,ENE,68,0.0,0.9,69,0.00,,CLR,0.00,VWS V14.00,2013-08-05 05:48:00,
2013-08-04 22:52:00,64.8,54.4,29.94,WNW,292,0.0,0.9,69,0.00,,CLR,0.00,VWS V14.00,2013-08-05 05:52:00,
2013-08-04 22:53:00,64.8,54.4,29.94,WNW,292,0.0,0.9,69,0.00,,CLR,0.00,VWS V14.00,2013-08-05 05:53:00,
2013-08-04 22:57:00,64.8,54.4,29.94,West,270,0.0,0.9,69,0.00,,CLR,0.00,VWS V14.00,2013-08-05 05:57:00,
2013-08-04 22:58:00,64.8,54.4,29.94,West,270,0.0,0.9,69,0.00,,CLR,0.00,VWS V14.00,2013-08-05 05:58:00,
2013-08-04 23:02:00,64.6,54.6,29.94,West,270,0.0,0.0,70,0.00,,CLR,0.00,VWS V14.00,2013-08-05 06:02:00,
2013-08-04 23:03:00,64.6,54.6,29.94,WNW,292,0.0,0.0,70,0.00,,CLR,0.00,VWS V14.00,2013-08-05 06:03:00,
2013-08-04 23:07:00,64.4,54.4,29.94,WSW,248,0.0,0.0,70,0.00,,CLR,0.00,VWS V14.00,2013-08-05 06:07:00,
2013-08-04 23:08:00,64.4,54.4,29.94,WSW,248,0.0,0.0,70,0.00,,CLR,0.00,VWS V14.00,2013-08-05 06:08:00,
2013-08-04 23:13:00,64.2,54.2,29.94,WNW,292,0.0,2.0,70,0.00,,CLR,0.00,VWS V14.00,2013-08-05 06:13:00,
2013-08-04 23:18:00,64.0,54.5,29.94,WSW,248,0.0,2.0,71,0.00,,CLR,0.00,VWS V14.00,2013-08-05 06:18:00,
2013-08-04 23:23:00,63.9,54.3,29.94,WNW,292,0.0,2.2,71,0.00,,CLR,0.00,VWS V14.00,2013-08-05 06:23:00,
2013-08-04 23:28:00,63.7,54.1,29.94,SW,225,0.0,2.2,71,0.00,,CLR,0.00,VWS V14.00,2013-08-05 06:28:00,
2013-08-04 23:33:00,63.5,53.9,29.94,WNW,292,0.0,2.2,71,0.00,,CLR,0.00,VWS V14.00,2013-08-05 06:33:00,
2013-08-04 23:34:00,63.5,53.9,29.94,West,270,0.0,2.2,71,0.00,,CLR,0.00,VWS V14.00,2013-08-05 06:34:00,
2013-08-04 23:38:00,63.3,53.8,29.94,West,270,0.0,1.6,71,0.00,,CLR,0.00,VWS V14.00,2013-08-05 06:38:00,
2013-08-04 23:39:00,63.3,53.8,29.94,West,270,0.0,1.6,71,0.00,,CLR,0.00,VWS V14.00,2013-08-05 06:39:00,
2013-08-04 23:43:00,63.1,53.6,29.94,WNW,292,0.0,0.9,71,0.00,,CLR,0.00,VWS V14.00,2013-08-05 06:43:00,
2013-08-04 23:44:00,63.1,54.0,29.94,WNW,292,0.0,0.9,72,0.00,,CLR,0.00,VWS V14.00,2013-08-05 06:44:00,
2013-08-04 23:48:00,63.1,54.0,29.94,West,270,0.0,0.9,72,0.00,,CLR,0.00,VWS V14.00,2013-08-05 06:48:00,
2013-08-04 23:49:00,63.0,53.8,29.94,West,270,0.0,0.9,72,0.00,,CLR,0.00,VWS V14.00,2013-08-05 06:49:00,
2013-08-04 23:53:00,63.0,53.8,29.94,West,270,0.9,0.9,72,0.00,,CLR,0.00,VWS V14.00,2013-08-05 06:53:00,
2013-08-04 23:54:00,63.0,53.8,29.94,West,270,0.9,0.9,72,0.00,,CLR,0.00,VWS V14.00,2013-08-05 06:54:00,
2013-08-04 23:58:00,62.8,53.6,29.94,WNW,292,0.9,0.9,72,0.00,,CLR,0.00,VWS V14.00,2013-08-05 06:58:00,
2013-08-04 23:59:00,62.8,53.6,29.94,WNW,292,0.9,0.9,72,0.00,,CLR,0.00,VWS V14.00,2013-08-05 06:59:00,